Wetterdaten: Mittwoch, 17.02.2016
Datum Zeit Temp. Aussen Temp. o. S. +5cm Feuchte Auss BlattFeu 1 Luftdruck Regen Sonnenschein Regendauer Solar Windben Empfang
17.02.2016 00:00 -1,5 C -1,7 C -3,3 C 86 % 0 lf 1031,8 hPa 0,0 l/m 0 min 0 min 0 W/m 4,2 km/h (1 Bft) 93,62 %
17.02.2016 00:02 -1,5 C -1,7 C -3,9 C 86 % 0 lf 1031,9 hPa 0,0 l/m 0 min 0 min 0 W/m 4,2 km/h (1 Bft) 85,37 %
17.02.2016 00:06 -1,5 C -1,7 C -3,9 C 86 % 0 lf 1031,8 hPa 0,0 l/m 0 min 0 min 0 W/m 8,4 km/h (2 Bft) 92,71 %
17.02.2016 00:08 -1,6 C -1,7 C -3,9 C 86 % 0 lf 1031,7 hPa 0,0 l/m 0 min 0 min 0 W/m 6,3 km/h (2 Bft) 93,62 %
17.02.2016 00:10 -1,6 C -1,7 C -3,9 C 86 % 0 lf 1031,7 hPa 0,0 l/m 0 min 0 min 0 W/m 6,3 km/h (2 Bft) 91,49 %
17.02.2016 00:12 -1,6 C -1,7 C -3,9 C 86 % 0 lf 1031,7 hPa 0,0 l/m 0 min 0 min 0 W/m 6,3 km/h (2 Bft) 93,62 %
17.02.2016 00:14 -1,6 C -1,7 C -3,9 C 86 % 0 lf 1031,6 hPa 0,0 l/m 0 min 0 min 0 W/m 8,4 km/h (2 Bft) 93,48 %
17.02.2016 00:16 -1,6 C -1,7 C -3,9 C 86 % 0 lf 1031,6 hPa 0,0 l/m 0 min 0 min 0 W/m 8,4 km/h (2 Bft) 95,74 %
17.02.2016 00:18 -1,7 C -1,7 C -3,9 C 86 % 0 lf 1031,6 hPa 0,0 l/m 0 min 0 min 0 W/m 8,4 km/h (2 Bft) 91,49 %
17.02.2016 00:20 -1,7 C -2,2 C -3,9 C 86 % 0 lf 1031,6 hPa 0,0 l/m 0 min 0 min 0 W/m 4,2 km/h (1 Bft) 91,49 %
17.02.2016 00:22 -1,7 C -1,7 C -3,9 C 86 % 0 lf 1031,6 hPa 0,0 l/m 0 min 0 min 0 W/m 8,4 km/h (2 Bft) 93,62 %
17.02.2016 00:24 -1,7 C -1,7 C -3,9 C 86 % 0 lf 1031,6 hPa 0,0 l/m 0 min 0 min 0 W/m 8,4 km/h (2 Bft) 95,74 %
17.02.2016 00:26 -1,7 C -2,2 C -3,9 C 86 % 0 lf 1031,6 hPa 0,0 l/m 0 min 0 min 0 W/m 6,3 km/h (2 Bft) 97,83 %
17.02.2016 00:28 -1,8 C -2,2 C -3,9 C 86 % 0 lf 1031,6 hPa 0,0 l/m 0 min 0 min 0 W/m 8,4 km/h (2 Bft) 95,74 %
17.02.2016 00:30 -1,8 C -2,2 C -3,9 C 86 % 0 lf 1031,6 hPa 0,0 l/m 0 min 0 min 0 W/m 6,3 km/h (2 Bft) 97,87 %
17.02.2016 00:32 -1,8 C -2,2 C -3,9 C 86 % 0 lf 1031,5 hPa 0,0 l/m 0 min 0 min 0 W/m 4,2 km/h (1 Bft) 95,74 %
17.02.2016 00:34 -1,8 C -2,2 C -3,9 C 86 % 0 lf 1031,5 hPa 0,0 l/m 0 min 0 min 0 W/m 4,2 km/h (1 Bft) 87,23 %
17.02.2016 00:36 -1,8 C -2,2 C -3,9 C 86 % 0 lf 1031,5 hPa 0,0 l/m 0 min 0 min 0 W/m 4,2 km/h (1 Bft) 93,62 %
17.02.2016 00:38 -1,9 C -2,2 C -3,9 C 86 % 0 lf 1031,5 hPa 0,0 l/m 0 min 0 min 0 W/m 8,4 km/h (2 Bft) 97,83 %
17.02.2016 00:40 -1,9 C -2,2 C -3,9 C 86 % 0 lf 1031,5 hPa 0,0 l/m 0 min 0 min 0 W/m 6,3 km/h (2 Bft) 95,74 %
17.02.2016 00:42 -1,9 C -2,2 C -3,9 C 86 % 0 lf 1031,5 hPa 0,0 l/m 0 min 0 min 0 W/m 6,3 km/h (2 Bft) 95,74 %
17.02.2016 00:44 -1,9 C -2,2 C -3,9 C 86 % 0 lf 1031,5 hPa 0,0 l/m 0 min 0 min 0 W/m 6,3 km/h (2 Bft) 97,87 %
17.02.2016 00:46 -1,9 C -2,8 C -4,4 C 86 % 0 lf 1031,5 hPa 0,0 l/m 0 min 0 min 0 W/m 2,1 km/h (1 Bft) 93,62 %
17.02.2016 00:48 -1,9 C -3,3 C -4,4 C 86 % 0 lf 1031,4 hPa 0,0 l/m 0 min 0 min 0 W/m 6,3 km/h (2 Bft) 97,83 %
17.02.2016 00:50 -2,0 C -2,8 C -4,4 C 86 % 0 lf 1031,5 hPa 0,0 l/m 0 min 0 min 0 W/m 6,3 km/h (2 Bft) 95,74 %
17.02.2016 00:52 -2,0 C -2,8 C -4,4 C 86 % 0 lf 1031,5 hPa 0,0 l/m 0 min 0 min 0 W/m 4,2 km/h (1 Bft) 93,62 %
17.02.2016 00:54 -2,1 C -2,8 C -4,4 C 86 % 0 lf 1031,6 hPa 0,0 l/m 0 min 0 min 0 W/m 6,3 km/h (2 Bft) 97,87 %
17.02.2016 00:56 -2,1 C -3,3 C -4,4 C 86 % 0 lf 1031,5 hPa 0,0 l/m 0 min 0 min 0 W/m 2,1 km/h (1 Bft) 91,49 %
17.02.2016 00:58 -2,1 C -3,3 C -4,4 C 86 % 0 lf 1031,4 hPa 0,0 l/m 0 min 0 min 0 W/m 2,1 km/h (1 Bft) 97,87 %
17.02.2016 01:00 -2,1 C -3,3 C -4,4 C 86 % 0 lf 1031,4 hPa 0,0 l/m 0 min 0 min 0 W/m 2,1 km/h (1 Bft) 97,87 %
17.02.2016 01:02 -2,1 C -3,3 C -4,4 C 86 % 0 lf 1031,4 hPa 0,0 l/m 0 min 0 min 0 W/m 2,1 km/h (1 Bft) 95,65 %
17.02.2016 01:04 -2,2 C -3,9 C -4,4 C 86 % 0 lf 1031,3 hPa 0,0 l/m 0 min 0 min 0 W/m 4,2 km/h (1 Bft) 97,87 %
17.02.2016 01:06 -2,2 C -3,9 C -4,4 C 86 % 0 lf 1031,4 hPa 0,0 l/m 0 min 0 min 0 W/m 4,2 km/h (1 Bft) 100,00 %
17.02.2016 01:08 -2,2 C -3,9 C -4,4 C 86 % 0 lf 1031,3 hPa 0,0 l/m 0 min 0 min 0 W/m 2,1 km/h (1 Bft) 95,74 %
17.02.2016 01:10 -2,2 C -3,9 C -4,4 C 86 % 0 lf 1031,2 hPa 0,0 l/m 0 min 0 min 0 W/m 0,0 km/h (0 Bft) 97,87 %
17.02.2016 01:12 -2,3 C -3,9 C -4,4 C 86 % 0 lf 1031,1 hPa 0,0 l/m 0 min 0 min 0 W/m 2,1 km/h (1 Bft) 97,83 %
17.02.2016 01:14 -2,3 C -4,4 C -5,0 C 86 % 0 lf 1031,1 hPa 0,0 l/m 0 min 0 min 0 W/m 0,0 km/h (0 Bft) 93,62 %
17.02.2016 01:16 -2,3 C -4,4 C -5,0 C 86 % 0 lf 1031,0 hPa 0,0 l/m 0 min 0 min 0 W/m 0,0 km/h (0 Bft) 100,00 %
17.02.2016 01:18 -2,3 C -4,4 C -5,0 C 86 % 0 lf 1031,1 hPa 0,0 l/m 0 min 0 min 0 W/m 2,1 km/h (1 Bft) 97,87 %
17.02.2016 01:20 -2,4 C -4,4 C -5,0 C 86 % 0 lf 1031,0 hPa 0,0 l/m 0 min 0 min 0 W/m 2,1 km/h (1 Bft) 93,62 %
17.02.2016 01:22 -2,4 C -3,9 C -5,0 C 86 % 0 lf 1031,0 hPa 0,0 l/m 0 min 0 min 0 W/m 0,0 km/h (0 Bft) 95,74 %
17.02.2016 01:24 -2,4 C -3,9 C -5,0 C 86 % 0 lf 1031,0 hPa 0,0 l/m 0 min 0 min 0 W/m 2,1 km/h (1 Bft) 95,65 %
17.02.2016 01:26 -2,5 C -3,9 C -5,0 C 86 % 0 lf 1031,0 hPa 0,0 l/m 0 min 0 min 0 W/m 4,2 km/h (1 Bft) 93,62 %
17.02.2016 01:28 -2,6 C -3,9 C -5,0 C 86 % 0 lf 1030,9 hPa 0,0 l/m 0 min 0 min 0 W/m 2,1 km/h (1 Bft) 95,74 %
17.02.2016 01:30 -2,6 C -3,9 C -5,0 C 86 % 0 lf 1030,8 hPa 0,0 l/m 0 min 0 min 0 W/m 4,2 km/h (1 Bft) 97,87 %
17.02.2016 01:32 -2,6 C -3,9 C -5,0 C 86 % 0 lf 1030,8 hPa 0,0 l/m 0 min 0 min 0 W/m 4,2 km/h (1 Bft) 95,74 %
17.02.2016 01:34 -2,6 C -3,9 C -5,0 C 86 % 0 lf 1030,8 hPa 0,0 l/m 0 min 0 min 0 W/m 6,3 km/h (2 Bft) 97,87 %
17.02.2016 01:36 -2,7 C -3,9 C -5,0 C 86 % 0 lf 1030,8 hPa 0,0 l/m 0 min 0 min 0 W/m 6,3 km/h (2 Bft) 93,48 %
17.02.2016 01:38 -2,7 C -3,3 C -5,0 C 86 % 1 lf 1030,8 hPa 0,0 l/m 0 min 0 min 0 W/m 8,4 km/h (2 Bft) 97,87 %
17.02.2016 01:40 -2,8 C -3,3 C -5,0 C 86 % 1 lf 1030,8 hPa 0,0 l/m 0 min 0 min 0 W/m 6,3 km/h (2 Bft) 97,87 %
17.02.2016 01:42 -2,8 C -3,3 C -4,4 C 86 % 1 lf 1030,8 hPa 0,0 l/m 0 min 0 min 0 W/m 10,5 km/h (2 Bft) 93,62 %
17.02.2016 01:44 -2,8 C -2,8 C -4,4 C 86 % 0 lf 1030,7 hPa 0,0 l/m 0 min 0 min 0 W/m 10,5 km/h (2 Bft) 89,36 %
17.02.2016 01:46 -2,8 C -2,8 C -4,4 C 86 % 0 lf 1030,7 hPa 0,0 l/m 0 min 0 min 0 W/m 8,4 km/h (2 Bft) 93,48 %
17.02.2016 01:48 -2,8 C -2,2 C -4,4 C 87 % 0 lf 1030,7 hPa 0,0 l/m 0 min 0 min 0 W/m 14,6 km/h (3 Bft) 93,62 %
17.02.2016 01:50 -2,8 C -2,2 C -3,9 C 87 % 0 lf 1030,7 hPa 0,0 l/m 0 min 0 min 0 W/m 10,5 km/h (2 Bft) 95,74 %
17.02.2016 01:52 -2,8 C -2,2 C -3,9 C 87 % 0 lf 1030,7 hPa 0,0 l/m 0 min 0 min 0 W/m 10,5 km/h (2 Bft) 91,49 %
17.02.2016 01:54 -2,8 C -2,2 C -3,9 C 87 % 0 lf 1030,6 hPa 0,0 l/m 0 min 0 min 0 W/m 10,5 km/h (2 Bft) 93,62 %
17.02.2016 01:56 -2,8 C -2,2 C -3,9 C 88 % 0 lf 1030,5 hPa 0,0 l/m 0 min 0 min 0 W/m 14,6 km/h (3 Bft) 95,74 %
17.02.2016 01:58 -2,7 C -2,2 C -3,9 C 88 % 0 lf 1030,5 hPa 0,0 l/m 0 min 0 min 0 W/m 16,7 km/h (3 Bft) 95,65 %
17.02.2016 02:00 -2,7 C -2,2 C -3,9 C 88 % 0 lf 1030,5 hPa 0,0 l/m 0 min 0 min 0 W/m 16,7 km/h (3 Bft) 95,74 %
17.02.2016 02:02 -2,7 C -2,2 C -3,9 C 88 % 0 lf 1030,5 hPa 0,0 l/m 0 min 0 min 0 W/m 12,6 km/h (3 Bft) 91,49 %
17.02.2016 02:04 -2,7 C -2,2 C -3,9 C 88 % 0 lf 1030,4 hPa 0,0 l/m 0 min 0 min 0 W/m 14,6 km/h (3 Bft) 95,74 %
17.02.2016 02:06 -2,7 C -2,2 C -3,9 C 88 % 0 lf 1030,4 hPa 0,0 l/m 0 min 0 min 0 W/m 14,6 km/h (3 Bft) 93,62 %
17.02.2016 02:08 -2,6 C -2,2 C -3,9 C 88 % 0 lf 1030,3 hPa 0,0 l/m 0 min 0 min 0 W/m 14,6 km/h (3 Bft) 93,62 %
17.02.2016 02:10 -2,6 C -2,2 C -3,9 C 88 % 0 lf 1030,2 hPa 0,0 l/m 0 min 0 min 0 W/m 14,6 km/h (3 Bft) 95,65 %
17.02.2016 02:12 -2,6 C -2,2 C -3,3 C 89 % 0 lf 1030,2 hPa 0,0 l/m 0 min 0 min 0 W/m 14,6 km/h (3 Bft) 95,74 %
17.02.2016 02:14 -2,6 C -1,7 C -3,3 C 89 % 0 lf 1030,2 hPa 0,0 l/m 0 min 0 min 0 W/m 10,5 km/h (2 Bft) 95,74 %
17.02.2016 02:16 -2,6 C -2,2 C -3,3 C 89 % 0 lf 1030,2 hPa 0,0 l/m 0 min 0 min 0 W/m 6,3 km/h (2 Bft) 89,36 %
17.02.2016 02:18 -2,5 C -2,2 C -3,3 C 89 % 0 lf 1030,2 hPa 0,0 l/m 0 min 0 min 0 W/m 10,5 km/h (2 Bft) 91,49 %
17.02.2016 02:20 -2,5 C -2,2 C -3,9 C 89 % 0 lf 1030,2 hPa 0,0 l/m 0 min 0 min 0 W/m 10,5 km/h (2 Bft) 95,74 %
17.02.2016 02:22 -2,5 C -2,2 C -3,9 C 89 % 0 lf 1030,1 hPa 0,0 l/m 0 min 0 min 0 W/m 10,5 km/h (2 Bft) 93,48 %
17.02.2016 02:24 -2,5 C -2,2 C -3,9 C 89 % 0 lf 1030,0 hPa 0,0 l/m 0 min 0 min 0 W/m 10,5 km/h (2 Bft) 95,74 %
17.02.2016 02:26 -2,5 C -2,2 C -3,9 C 89 % 0 lf 1030,0 hPa 0,0 l/m 0 min 0 min 0 W/m 6,3 km/h (2 Bft) 95,74 %
17.02.2016 02:28 -2,5 C -2,2 C -3,9 C 88 % 0 lf 1030,0 hPa 0,0 l/m 0 min 0 min 0 W/m 4,2 km/h (1 Bft) 93,62 %
17.02.2016 02:30 -2,5 C -2,8 C -3,9 C 88 % 0 lf 1030,0 hPa 0,0 l/m 0 min 0 min 0 W/m 6,3 km/h (2 Bft) 95,74 %
17.02.2016 02:32 -2,5 C -2,8 C -3,9 C 88 % 0 lf 1029,9 hPa 0,0 l/m 0 min 0 min 0 W/m 6,3 km/h (2 Bft) 91,49 %
17.02.2016 02:34 -2,5 C -2,8 C -4,4 C 88 % 0 lf 1030,0 hPa 0,0 l/m 0 min 0 min 0 W/m 4,2 km/h (1 Bft) 93,48 %
17.02.2016 02:36 -2,5 C -2,8 C -4,4 C 88 % 0 lf 1029,9 hPa 0,0 l/m 0 min 0 min 0 W/m 2,1 km/h (1 Bft) 95,74 %
17.02.2016 02:38 -2,5 C -2,8 C -3,9 C 88 % 0 lf 1029,8 hPa 0,0 l/m 0 min 0 min 0 W/m 10,5 km/h (2 Bft) 93,62 %
17.02.2016 02:40 -2,5 C -2,8 C -4,4 C 88 % 0 lf 1029,8 hPa 0,0 l/m 0 min 0 min 0 W/m 10,5 km/h (2 Bft) 97,87 %
17.02.2016 02:42 -2,5 C -2,8 C -4,4 C 88 % 0 lf 1029,8 hPa 0,0 l/m 0 min 0 min 0 W/m 6,3 km/h (2 Bft) 97,87 %
17.02.2016 02:44 -2,5 C -2,8 C -4,4 C 88 % 0 lf 1029,8 hPa 0,0 l/m 0 min 0 min 0 W/m 8,4 km/h (2 Bft) 95,74 %
17.02.2016 02:46 -2,6 C -2,8 C -4,4 C 88 % 0 lf 1029,8 hPa 0,0 l/m 0 min 0 min 0 W/m 8,4 km/h (2 Bft) 97,83 %
17.02.2016 02:48 -2,6 C -3,3 C -4,4 C 88 % 0 lf 1029,8 hPa 0,0 l/m 0 min 0 min 0 W/m 6,3 km/h (2 Bft) 97,87 %
17.02.2016 02:50 -2,6 C -3,3 C -4,4 C 88 % 0 lf 1029,7 hPa 0,0 l/m 0 min 0 min 0 W/m 6,3 km/h (2 Bft) 100,00 %
17.02.2016 02:52 -2,6 C -2,8 C -4,4 C 88 % 0 lf 1029,7 hPa 0,0 l/m 0 min 0 min 0 W/m 8,4 km/h (2 Bft) 100,00 %
17.02.2016 02:54 -2,6 C -2,8 C -4,4 C 88 % 0 lf 1029,7 hPa 0,0 l/m 0 min 0 min 0 W/m 6,3 km/h (2 Bft) 97,87 %
17.02.2016 02:56 -2,6 C -2,8 C -4,4 C 88 % 0 lf 1029,7 hPa 0,0 l/m 0 min 0 min 0 W/m 4,2 km/h (1 Bft) 100,00 %
17.02.2016 02:58 -2,6 C -2,8 C -4,4 C 88 % 0 lf 1029,6 hPa 0,0 l/m 0 min 0 min 0 W/m 4,2 km/h (1 Bft) 100,00 %
17.02.2016 03:00 -2,6 C -3,3 C -4,4 C 88 % 0 lf 1029,6 hPa 0,0 l/m 0 min 0 min 0 W/m 6,3 km/h (2 Bft) 97,87 %
17.02.2016 03:02 -2,7 C -2,8 C -4,4 C 88 % 0 lf 1029,6 hPa 0,0 l/m 0 min 0 min 0 W/m 6,3 km/h (2 Bft) 95,74 %
17.02.2016 03:04 -2,7 C -3,3 C -4,4 C 88 % 0 lf 1029,6 hPa 0,0 l/m 0 min 0 min 0 W/m 2,1 km/h (1 Bft) 97,87 %
17.02.2016 03:06 -2,7 C -3,3 C -4,4 C 88 % 0 lf 1029,5 hPa 0,0 l/m 0 min 0 min 0 W/m 6,3 km/h (2 Bft) 100,00 %
17.02.2016 03:08 -2,7 C -3,3 C -4,4 C 88 % 0 lf 1029,4 hPa 0,0 l/m 0 min 0 min 0 W/m 4,2 km/h (1 Bft) 93,48 %
17.02.2016 03:10 -2,7 C -3,3 C -5,0 C 88 % 0 lf 1029,4 hPa 0,0 l/m 0 min 0 min 0 W/m 8,4 km/h (2 Bft) 100,00 %
17.02.2016 03:12 -2,8 C -3,3 C -5,0 C 88 % 0 lf 1029,2 hPa 0,0 l/m 0 min 0 min 0 W/m 4,2 km/h (1 Bft) 97,87 %
17.02.2016 03:14 -2,8 C -3,3 C -5,0 C 88 % 0 lf 1029,3 hPa 0,0 l/m 0 min 0 min 0 W/m 4,2 km/h (1 Bft) 97,87 %
17.02.2016 03:16 -2,8 C -3,3 C -5,0 C 88 % 0 lf 1029,3 hPa 0,0 l/m 0 min 0 min 0 W/m 4,2 km/h (1 Bft) 97,87 %
17.02.2016 03:18 -2,8 C -3,3 C -5,0 C 88 % 0 lf 1029,2 hPa 0,0 l/m 0 min 0 min 0 W/m 6,3 km/h (2 Bft) 97,87 %
17.02.2016 03:20 -2,8 C -3,3 C -5,0 C 88 % 0 lf 1029,1 hPa 0,0 l/m 0 min 0 min 0 W/m 4,2 km/h (1 Bft) 95,65 %
17.02.2016 03:22 -2,8 C -3,3 C -5,0 C 88 % 0 lf 1029,1 hPa 0,0 l/m 0 min 0 min 0 W/m 6,3 km/h (2 Bft) 100,00 %
17.02.2016 03:24 -2,9 C -3,3 C -5,0 C 88 % 0 lf 1029,1 hPa 0,0 l/m 0 min 0 min 0 W/m 6,3 km/h (2 Bft) 100,00 %
17.02.2016 03:26 -2,9 C -3,3 C -5,0 C 88 % 0 lf 1029,1 hPa 0,0 l/m 0 min 0 min 0 W/m 6,3 km/h (2 Bft) 97,87 %
17.02.2016 03:28 -2,9 C -3,3 C -5,0 C 88 % 0 lf 1029,1 hPa 0,0 l/m 0 min 0 min 0 W/m 8,4 km/h (2 Bft) 95,74 %
17.02.2016 03:30 -2,9 C -3,3 C -5,0 C 88 % 0 lf 1029,0 hPa 0,0 l/m 0 min 0 min 0 W/m 8,4 km/h (2 Bft) 97,87 %
17.02.2016 03:32 -2,9 C -3,9 C -5,0 C 88 % 0 lf 1029,0 hPa 0,0 l/m 0 min 0 min 0 W/m 6,3 km/h (2 Bft) 95,65 %
17.02.2016 03:34 -3,0 C -3,3 C -5,0 C 88 % 0 lf 1029,0 hPa 0,0 l/m 0 min 0 min 0 W/m 8,4 km/h (2 Bft) 93,62 %
17.02.2016 03:36 -3,0 C -3,3 C -5,0 C 88 % 0 lf 1028,9 hPa 0,0 l/m 0 min 0 min 0 W/m 6,3 km/h (2 Bft) 97,87 %
17.02.2016 03:38 -3,1 C -3,3 C -5,0 C 88 % 0 lf 1028,9 hPa 0,0 l/m 0 min 0 min 0 W/m 6,3 km/h (2 Bft) 97,87 %
17.02.2016 03:40 -3,1 C -2,8 C -4,4 C 88 % 0 lf 1028,9 hPa 0,0 l/m 0 min 0 min 0 W/m 8,4 km/h (2 Bft) 95,74 %
17.02.2016 03:42 -3,1 C -3,3 C -4,4 C 88 % 0 lf 1028,9 hPa 0,0 l/m 0 min 0 min 0 W/m 8,4 km/h (2 Bft) 95,74 %
17.02.2016 03:44 -3,1 C -3,3 C -4,4 C 88 % 0 lf 1028,9 hPa 0,0 l/m 0 min 0 min 0 W/m 8,4 km/h (2 Bft) 95,65 %
17.02.2016 03:46 -3,1 C -2,8 C -4,4 C 88 % 0 lf 1028,9 hPa 0,0 l/m 0 min 0 min 0 W/m 6,3 km/h (2 Bft) 97,87 %
17.02.2016 03:48 -3,1 C -2,8 C -4,4 C 88 % 0 lf 1028,9 hPa 0,0 l/m 0 min 0 min 0 W/m 8,4 km/h (2 Bft) 97,87 %
17.02.2016 03:50 -3,1 C -2,8 C -4,4 C 88 % 0 lf 1028,9 hPa 0,0 l/m 0 min 0 min 0 W/m 6,3 km/h (2 Bft) 97,87 %
17.02.2016 03:52 -3,1 C -2,8 C -4,4 C 88 % 0 lf 1028,9 hPa 0,0 l/m 0 min 0 min 0 W/m 10,5 km/h (2 Bft) 97,87 %
17.02.2016 03:54 -3,1 C -2,8 C -4,4 C 89 % 0 lf 1028,9 hPa 0,0 l/m 0 min 0 min 0 W/m 6,3 km/h (2 Bft) 97,87 %
17.02.2016 03:56 -3,1 C -2,8 C -4,4 C 89 % 0 lf 1028,8 hPa 0,0 l/m 0 min 0 min 0 W/m 12,6 km/h (3 Bft) 97,83 %
17.02.2016 03:58 -3,1 C -2,8 C -3,9 C 89 % 0 lf 1028,8 hPa 0,0 l/m 0 min 0 min 0 W/m 8,4 km/h (2 Bft) 91,49 %
17.02.2016 04:00 -3,0 C -2,8 C -3,9 C 89 % 0 lf 1028,7 hPa 0,0 l/m 0 min 0 min 0 W/m 10,5 km/h (2 Bft) 97,87 %
17.02.2016 04:02 -3,0 C -2,8 C -3,9 C 89 % 0 lf 1028,6 hPa 0,0 l/m 0 min 0 min 0 W/m 6,3 km/h (2 Bft) 100,00 %
17.02.2016 04:04 -3,0 C -2,8 C -4,4 C 89 % 0 lf 1028,6 hPa 0,0 l/m 0 min 0 min 0 W/m 8,4 km/h (2 Bft) 100,00 %
17.02.2016 04:06 -3,0 C -2,8 C -4,4 C 89 % 0 lf 1028,5 hPa 0,0 l/m 0 min 0 min 0 W/m 8,4 km/h (2 Bft) 100,00 %
17.02.2016 04:08 -3,0 C -2,8 C -4,4 C 89 % 0 lf 1028,5 hPa 0,0 l/m 0 min 0 min 0 W/m 6,3 km/h (2 Bft) 100,00 %
17.02.2016 04:09 -3,0 C -2,8 C -4,4 C 89 % 0 lf 1028,4 hPa 0,0 l/m 0 min 0 min 0 W/m 4,2 km/h (1 Bft) 100,00 %
17.02.2016 04:10 -3,0 C -2,8 C -4,4 C 89 % 0 lf 1028,4 hPa 0,0 l/m 0 min 0 min 0 W/m 2,1 km/h (1 Bft) 8,70 %
17.02.2016 04:11 -3,0 C -2,8 C -4,4 C 89 % 0 lf 1028,4 hPa 0,0 l/m 0 min 0 min 0 W/m 4,2 km/h (1 Bft) 52,17 %
17.02.2016 04:12 -3,0 C -2,8 C -4,4 C 89 % 0 lf 1028,3 hPa 0,0 l/m 0 min 0 min 0 W/m 6,3 km/h (2 Bft) 91,30 %
17.02.2016 04:13 -3,0 C -2,8 C -4,4 C 89 % 0 lf 1028,3 hPa 0,0 l/m 0 min 0 min 0 W/m 6,3 km/h (2 Bft) 21,74 %
17.02.2016 04:14 -3,0 C -2,8 C -4,4 C 89 % 0 lf 1028,3 hPa 0,0 l/m 0 min 0 min 0 W/m 0,0 km/h (0 Bft) 0,00 %
17.02.2016 04:15 -3,0 C -2,8 C -4,4 C 89 % 0 lf 1028,3 hPa 0,0 l/m 0 min 0 min 0 W/m 6,3 km/h (2 Bft) 65,22 %
17.02.2016 04:18 -3,0 C -2,8 C -4,4 C 89 % 0 lf 1028,2 hPa 0,0 l/m 0 min 0 min 0 W/m 10,5 km/h (2 Bft) 95,65 %
17.02.2016 04:20 -3,0 C -2,8 C -4,4 C 89 % 0 lf 1028,2 hPa 0,0 l/m 0 min 0 min 0 W/m 8,4 km/h (2 Bft) 95,74 %
17.02.2016 04:22 -3,0 C -2,8 C -4,4 C 89 % 0 lf 1028,2 hPa 0,0 l/m 0 min 0 min 0 W/m 10,5 km/h (2 Bft) 97,87 %
17.02.2016 04:24 -3,0 C -2,8 C -4,4 C 89 % 0 lf 1028,2 hPa 0,0 l/m 0 min 0 min 0 W/m 10,5 km/h (2 Bft) 98,18 %
17.02.2016 04:26 -3,0 C -2,8 C -4,4 C 89 % 0 lf 1028,1 hPa 0,0 l/m 0 min 0 min 0 W/m 6,3 km/h (2 Bft) 98,00 %
17.02.2016 04:28 -3,0 C -2,8 C -4,4 C 89 % 0 lf 1028,1 hPa 0,0 l/m 0 min 0 min 0 W/m 8,4 km/h (2 Bft) 94,29 %
17.02.2016 04:30 -3,0 C -2,8 C -4,4 C 89 % 0 lf 1028,1 hPa 0,0 l/m 0 min 0 min 0 W/m 8,4 km/h (2 Bft) 95,74 %
17.02.2016 04:32 -3,0 C -2,8 C -4,4 C 89 % 0 lf 1028,2 hPa 0,0 l/m 0 min 0 min 0 W/m 6,3 km/h (2 Bft) 95,74 %
17.02.2016 04:34 -3,0 C -2,8 C -4,4 C 89 % 0 lf 1028,1 hPa 0,0 l/m 0 min 0 min 0 W/m 10,5 km/h (2 Bft) 96,36 %
17.02.2016 04:36 -3,0 C -2,8 C -4,4 C 89 % 0 lf 1028,1 hPa 0,0 l/m 0 min 0 min 0 W/m 10,5 km/h (2 Bft) 98,00 %
17.02.2016 04:38 -3,0 C -2,8 C -4,4 C 89 % 0 lf 1028,1 hPa 0,0 l/m 0 min 0 min 0 W/m 8,4 km/h (2 Bft) 91,43 %
17.02.2016 04:40 -3,0 C -2,8 C -4,4 C 89 % 0 lf 1028,0 hPa 0,0 l/m 0 min 0 min 0 W/m 6,3 km/h (2 Bft) 93,62 %
17.02.2016 04:42 -3,0 C -2,8 C -4,4 C 89 % 0 lf 1028,0 hPa 0,0 l/m 0 min 0 min 0 W/m 8,4 km/h (2 Bft) 89,09 %
17.02.2016 04:44 -3,0 C -3,3 C -4,4 C 89 % 0 lf 1028,1 hPa 0,0 l/m 0 min 0 min 0 W/m 6,3 km/h (2 Bft) 94,00 %
17.02.2016 04:46 -3,0 C -3,3 C -4,4 C 89 % 0 lf 1028,0 hPa 0,0 l/m 0 min 0 min 0 W/m 6,3 km/h (2 Bft) 91,43 %
17.02.2016 04:48 -3,0 C -3,3 C -4,4 C 89 % 0 lf 1028,0 hPa 0,0 l/m 0 min 0 min 0 W/m 6,3 km/h (2 Bft) 95,74 %
17.02.2016 04:50 -3,0 C -3,3 C -4,4 C 89 % 0 lf 1027,9 hPa 0,0 l/m 0 min 0 min 0 W/m 6,3 km/h (2 Bft) 92,86 %
17.02.2016 04:52 -3,0 C -3,3 C -4,4 C 89 % 0 lf 1027,9 hPa 0,0 l/m 0 min 0 min 0 W/m 6,3 km/h (2 Bft) 91,84 %
17.02.2016 04:54 -3,1 C -3,3 C -5,0 C 89 % 0 lf 1027,8 hPa 0,0 l/m 0 min 0 min 0 W/m 8,4 km/h (2 Bft) 97,22 %
17.02.2016 04:56 -3,1 C -3,3 C -5,0 C 89 % 0 lf 1027,8 hPa 0,0 l/m 0 min 0 min 0 W/m 6,3 km/h (2 Bft) 93,62 %
17.02.2016 04:58 -3,1 C -3,3 C -5,0 C 89 % 0 lf 1027,7 hPa 0,0 l/m 0 min 0 min 0 W/m 6,3 km/h (2 Bft) 91,30 %
17.02.2016 05:00 -3,1 C -3,3 C -5,0 C 89 % 0 lf 1027,7 hPa 0,0 l/m 0 min 0 min 0 W/m 10,5 km/h (2 Bft) 89,29 %
17.02.2016 05:02 -3,1 C -3,3 C -5,0 C 89 % 0 lf 1027,7 hPa 0,0 l/m 0 min 0 min 0 W/m 6,3 km/h (2 Bft) 91,84 %
17.02.2016 05:04 -3,1 C -3,3 C -5,0 C 89 % 0 lf 1027,7 hPa 0,0 l/m 0 min 0 min 0 W/m 8,4 km/h (2 Bft) 94,44 %
17.02.2016 05:06 -3,1 C -3,3 C -5,0 C 89 % 0 lf 1027,7 hPa 0,0 l/m 0 min 0 min 0 W/m 10,5 km/h (2 Bft) 93,48 %
17.02.2016 05:08 -3,1 C -3,3 C -4,4 C 89 % 0 lf 1027,7 hPa 0,0 l/m 0 min 0 min 0 W/m 10,5 km/h (2 Bft) 94,55 %
17.02.2016 05:10 -3,2 C -3,3 C -4,4 C 89 % 0 lf 1027,6 hPa 0,0 l/m 0 min 0 min 0 W/m 10,5 km/h (2 Bft) 92,00 %
17.02.2016 05:12 -3,2 C -3,3 C -4,4 C 89 % 0 lf 1027,6 hPa 0,0 l/m 0 min 0 min 0 W/m 10,5 km/h (2 Bft) 94,29 %
17.02.2016 05:14 -3,2 C -3,3 C -4,4 C 89 % 0 lf 1027,5 hPa 0,0 l/m 0 min 0 min 0 W/m 14,6 km/h (3 Bft) 93,62 %
17.02.2016 05:16 -3,2 C -3,3 C -4,4 C 89 % 0 lf 1027,5 hPa 0,0 l/m 0 min 0 min 0 W/m 14,6 km/h (3 Bft) 96,36 %
17.02.2016 05:18 -3,2 C -3,3 C -4,4 C 89 % 0 lf 1027,4 hPa 0,0 l/m 0 min 0 min 0 W/m 16,7 km/h (3 Bft) 94,00 %
17.02.2016 05:20 -3,2 C -3,3 C -4,4 C 89 % 0 lf 1027,4 hPa 0,0 l/m 0 min 0 min 0 W/m 8,4 km/h (2 Bft) 94,44 %
17.02.2016 05:22 -3,2 C -3,3 C -4,4 C 89 % 0 lf 1027,4 hPa 0,0 l/m 0 min 0 min 0 W/m 16,7 km/h (3 Bft) 95,65 %
17.02.2016 05:24 -3,2 C -3,3 C -4,4 C 89 % 0 lf 1027,4 hPa 0,0 l/m 0 min 0 min 0 W/m 10,5 km/h (2 Bft) 91,07 %
17.02.2016 05:26 -3,2 C -3,3 C -4,4 C 89 % 0 lf 1027,3 hPa 0,0 l/m 0 min 0 min 0 W/m 14,6 km/h (3 Bft) 93,88 %
17.02.2016 05:28 -3,2 C -3,3 C -4,4 C 89 % 0 lf 1027,3 hPa 0,0 l/m 0 min 0 min 0 W/m 14,6 km/h (3 Bft) 93,62 %
17.02.2016 05:30 -3,2 C -2,8 C -4,4 C 89 % 0 lf 1027,3 hPa 0,0 l/m 0 min 0 min 0 W/m 14,6 km/h (3 Bft) 91,67 %
17.02.2016 05:32 -3,2 C -2,8 C -4,4 C 90 % 0 lf 1027,3 hPa 0,0 l/m 0 min 0 min 0 W/m 12,6 km/h (3 Bft) 93,62 %
17.02.2016 05:34 -3,2 C -2,8 C -4,4 C 90 % 0 lf 1027,2 hPa 0,0 l/m 0 min 0 min 0 W/m 14,6 km/h (3 Bft) 94,55 %
17.02.2016 05:36 -3,2 C -2,8 C -4,4 C 90 % 0 lf 1027,2 hPa 0,0 l/m 0 min 0 min 0 W/m 16,7 km/h (3 Bft) 92,00 %
17.02.2016 05:38 -3,2 C -2,8 C -4,4 C 90 % 0 lf 1027,2 hPa 0,0 l/m 0 min 0 min 0 W/m 12,6 km/h (3 Bft) 97,14 %
17.02.2016 05:40 -3,2 C -3,3 C -4,4 C 90 % 0 lf 1027,2 hPa 0,0 l/m 0 min 0 min 0 W/m 14,6 km/h (3 Bft) 95,74 %
17.02.2016 05:42 -3,2 C -3,3 C -4,4 C 90 % 0 lf 1027,2 hPa 0,0 l/m 0 min 0 min 0 W/m 14,6 km/h (3 Bft) 95,74 %
17.02.2016 05:44 -3,2 C -3,3 C -4,4 C 90 % 0 lf 1027,2 hPa 0,0 l/m 0 min 0 min 0 W/m 10,5 km/h (2 Bft) 92,73 %
17.02.2016 05:46 -3,2 C -3,3 C -4,4 C 90 % 0 lf 1027,1 hPa 0,0 l/m 0 min 0 min 0 W/m 8,4 km/h (2 Bft) 92,00 %
17.02.2016 05:48 -3,2 C -2,8 C -4,4 C 90 % 0 lf 1027,1 hPa 0,0 l/m 0 min 0 min 0 W/m 8,4 km/h (2 Bft) 97,14 %
17.02.2016 05:50 -3,2 C -3,3 C -4,4 C 90 % 0 lf 1027,1 hPa 0,0 l/m 0 min 0 min 0 W/m 12,6 km/h (3 Bft) 95,74 %
17.02.2016 05:52 -3,2 C -2,8 C -4,4 C 90 % 0 lf 1027,0 hPa 0,0 l/m 0 min 0 min 0 W/m 8,4 km/h (2 Bft) 96,36 %
17.02.2016 05:54 -3,2 C -2,8 C -4,4 C 90 % 0 lf 1027,1 hPa 0,0 l/m 0 min 0 min 0 W/m 8,4 km/h (2 Bft) 94,00 %
17.02.2016 05:56 -3,2 C -3,3 C -4,4 C 90 % 0 lf 1027,1 hPa 0,0 l/m 0 min 0 min 0 W/m 4,2 km/h (1 Bft) 100,00 %
17.02.2016 05:58 -3,2 C -3,3 C -4,4 C 90 % 0 lf 1027,1 hPa 0,0 l/m 0 min 0 min 0 W/m 6,3 km/h (2 Bft) 100,00 %
17.02.2016 06:00 -3,2 C -3,3 C -4,4 C 90 % 0 lf 1027,1 hPa 0,0 l/m 0 min 0 min 0 W/m 6,3 km/h (2 Bft) 98,21 %
17.02.2016 06:02 -3,2 C -3,3 C -4,4 C 90 % 0 lf 1026,9 hPa 0,0 l/m 0 min 0 min 0 W/m 6,3 km/h (2 Bft) 100,00 %
17.02.2016 06:04 -3,2 C -3,3 C -4,4 C 90 % 0 lf 1026,9 hPa 0,0 l/m 0 min 0 min 0 W/m 6,3 km/h (2 Bft) 97,22 %
17.02.2016 06:06 -3,2 C -3,3 C -5,0 C 90 % 0 lf 1026,8 hPa 0,0 l/m 0 min 0 min 0 W/m 4,2 km/h (1 Bft) 100,00 %
17.02.2016 06:08 -3,2 C -3,3 C -5,0 C 90 % 0 lf 1026,9 hPa 0,0 l/m 0 min 0 min 0 W/m 4,2 km/h (1 Bft) 100,00 %
17.02.2016 06:10 -3,2 C -3,9 C -5,0 C 90 % 0 lf 1026,8 hPa 0,0 l/m 0 min 0 min 0 W/m 4,2 km/h (1 Bft) 97,30 %
17.02.2016 06:12 -3,2 C -3,9 C -5,0 C 90 % 0 lf 1026,7 hPa 0,0 l/m 0 min 0 min 0 W/m 4,2 km/h (1 Bft) 100,00 %
17.02.2016 06:14 -3,2 C -3,9 C -5,0 C 90 % 0 lf 1026,7 hPa 0,0 l/m 0 min 0 min 0 W/m 6,3 km/h (2 Bft) 100,00 %
17.02.2016 06:16 -3,3 C -3,9 C -5,0 C 90 % 0 lf 1026,5 hPa 0,0 l/m 0 min 0 min 0 W/m 4,2 km/h (1 Bft) 95,74 %
17.02.2016 06:18 -3,3 C -3,9 C -5,0 C 90 % 0 lf 1026,5 hPa 0,0 l/m 0 min 0 min 0 W/m 6,3 km/h (2 Bft) 100,00 %
17.02.2016 06:20 -3,3 C -3,9 C -5,0 C 90 % 0 lf 1026,5 hPa 0,0 l/m 0 min 0 min 0 W/m 8,4 km/h (2 Bft) 95,92 %
17.02.2016 06:22 -3,3 C -3,9 C -5,0 C 90 % 0 lf 1026,4 hPa 0,0 l/m 0 min 0 min 0 W/m 6,3 km/h (2 Bft) 100,00 %
17.02.2016 06:24 -3,3 C -3,9 C -5,0 C 90 % 0 lf 1026,6 hPa 0,0 l/m 0 min 0 min 0 W/m 6,3 km/h (2 Bft) 97,14 %
17.02.2016 06:26 -3,4 C -3,9 C -5,0 C 90 % 0 lf 1026,6 hPa 0,0 l/m 0 min 0 min 0 W/m 6,3 km/h (2 Bft) 94,64 %
17.02.2016 06:28 -3,4 C -3,9 C -5,0 C 90 % 0 lf 1026,5 hPa 0,0 l/m 0 min 0 min 0 W/m 6,3 km/h (2 Bft) 100,00 %
17.02.2016 06:30 -3,4 C -3,9 C -5,0 C 90 % 0 lf 1026,5 hPa 0,0 l/m 0 min 0 min 0 W/m 6,3 km/h (2 Bft) 97,87 %
17.02.2016 06:32 -3,4 C -3,9 C -5,0 C 90 % 0 lf 1026,5 hPa 0,0 l/m 0 min 0 min 0 W/m 4,2 km/h (1 Bft) 100,00 %
17.02.2016 06:34 -3,4 C -3,9 C -5,0 C 90 % 0 lf 1026,4 hPa 0,0 l/m 0 min 0 min 0 W/m 6,3 km/h (2 Bft) 97,22 %
17.02.2016 06:36 -3,4 C -3,9 C -5,0 C 90 % 0 lf 1026,4 hPa 0,0 l/m 0 min 0 min 0 W/m 6,3 km/h (2 Bft) 100,00 %
17.02.2016 06:38 -3,5 C -3,9 C -5,0 C 90 % 0 lf 1026,3 hPa 0,0 l/m 0 min 0 min 0 W/m 6,3 km/h (2 Bft) 100,00 %
17.02.2016 06:40 -3,5 C -3,9 C -5,0 C 90 % 0 lf 1026,3 hPa 0,0 l/m 0 min 0 min 0 W/m 8,4 km/h (2 Bft) 100,00 %
17.02.2016 06:42 -3,5 C -3,9 C -5,0 C 90 % 0 lf 1026,3 hPa 0,0 l/m 0 min 0 min 0 W/m 6,3 km/h (2 Bft) 95,74 %
17.02.2016 06:44 -3,6 C -3,9 C -5,0 C 90 % 0 lf 1026,2 hPa 0,0 l/m 0 min 0 min 0 W/m 6,3 km/h (2 Bft) 100,00 %
17.02.2016 06:46 -3,6 C -3,9 C -5,0 C 90 % 0 lf 1026,2 hPa 0,0 l/m 0 min 0 min 0 W/m 6,3 km/h (2 Bft) 98,18 %
17.02.2016 06:48 -3,6 C -3,9 C -5,0 C 90 % 0 lf 1026,1 hPa 0,0 l/m 0 min 0 min 0 W/m 8,4 km/h (2 Bft) 100,00 %
17.02.2016 06:50 -3,6 C -3,9 C -5,0 C 90 % 0 lf 1026,0 hPa 0,0 l/m 0 min 0 min 0 W/m 8,4 km/h (2 Bft) 100,00 %
17.02.2016 06:52 -3,6 C -3,9 C -5,0 C 90 % 0 lf 1025,9 hPa 0,0 l/m 0 min 0 min 0 W/m 6,3 km/h (2 Bft) 100,00 %
17.02.2016 06:54 -3,6 C -3,9 C -5,0 C 90 % 0 lf 1025,9 hPa 0,0 l/m 0 min 0 min 0 W/m 6,3 km/h (2 Bft) 97,87 %
17.02.2016 06:56 -3,6 C -3,9 C -5,0 C 90 % 0 lf 1025,9 hPa 0,0 l/m 0 min 0 min 0 W/m 6,3 km/h (2 Bft) 97,87 %
17.02.2016 06:58 -3,7 C -3,9 C -5,6 C 90 % 0 lf 1025,8 hPa 0,0 l/m 0 min 0 min 0 W/m 4,2 km/h (1 Bft) 95,35 %
17.02.2016 07:00 -3,7 C -3,9 C -5,6 C 90 % 0 lf 1025,8 hPa 0,0 l/m 0 min 0 min 0 W/m 4,2 km/h (1 Bft) 94,00 %
17.02.2016 07:02 -3,7 C -3,9 C -5,6 C 90 % 0 lf 1025,7 hPa 0,0 l/m 0 min 0 min 0 W/m 6,3 km/h (2 Bft) 96,00 %
17.02.2016 07:04 -3,7 C -3,9 C -5,6 C 90 % 0 lf 1025,8 hPa 0,0 l/m 0 min 0 min 0 W/m 6,3 km/h (2 Bft) 96,00 %
17.02.2016 07:06 -3,7 C -3,9 C -5,6 C 90 % 0 lf 1025,7 hPa 0,0 l/m 0 min 0 min 0 W/m 6,3 km/h (2 Bft) 97,87 %
17.02.2016 07:08 -3,7 C -3,9 C -5,6 C 90 % 0 lf 1025,7 hPa 0,0 l/m 0 min 0 min 0 W/m 8,4 km/h (2 Bft) 97,37 %
17.02.2016 07:10 -3,7 C -3,9 C -5,6 C 90 % 0 lf 1025,7 hPa 0,0 l/m 0 min 0 min 0 W/m 6,3 km/h (2 Bft) 95,65 %
17.02.2016 07:12 -3,7 C -3,9 C -5,6 C 90 % 0 lf 1025,7 hPa 0,0 l/m 0 min 0 min 0 W/m 8,4 km/h (2 Bft) 96,43 %
17.02.2016 07:14 -3,8 C -3,9 C -5,6 C 90 % 0 lf 1025,7 hPa 0,0 l/m 0 min 0 min 0 W/m 6,3 km/h (2 Bft) 89,36 %
17.02.2016 07:16 -3,8 C -3,9 C -5,6 C 90 % 0 lf 1025,6 hPa 0,0 l/m 0 min 0 min 0 W/m 10,5 km/h (2 Bft) 93,62 %
17.02.2016 07:18 -3,8 C -3,9 C -5,6 C 91 % 0 lf 1025,5 hPa 0,0 l/m 0 min 0 min 0 W/m 4,2 km/h (1 Bft) 97,87 %
17.02.2016 07:20 -3,8 C -3,9 C -5,6 C 91 % 0 lf 1025,5 hPa 0,0 l/m 0 min 0 min 0 W/m 4,2 km/h (1 Bft) 94,74 %
17.02.2016 07:22 -3,8 C -3,9 C -5,6 C 91 % 0 lf 1025,5 hPa 0,0 l/m 0 min 0 min 0 W/m 4,2 km/h (1 Bft) 95,92 %
17.02.2016 07:24 -3,8 C -3,9 C -5,6 C 90 % 0 lf 1025,4 hPa 0,0 l/m 0 min 0 min 0 W/m 8,4 km/h (2 Bft) 93,62 %
17.02.2016 07:26 -3,8 C -3,9 C -5,6 C 90 % 0 lf 1025,4 hPa 0,0 l/m 0 min 0 min 0 W/m 6,3 km/h (2 Bft) 93,62 %
17.02.2016 07:28 -3,8 C -3,9 C -5,6 C 90 % 1 lf 1025,4 hPa 0,0 l/m 0 min 0 min 0 W/m 10,5 km/h (2 Bft) 95,74 %
17.02.2016 07:30 -3,8 C -3,3 C -5,0 C 91 % 0 lf 1025,3 hPa 0,0 l/m 0 min 0 min 0 W/m 8,4 km/h (2 Bft) 93,18 %
17.02.2016 07:32 -3,8 C -3,9 C -5,6 C 91 % 0 lf 1025,3 hPa 0,0 l/m 0 min 0 min 0 W/m 8,4 km/h (2 Bft) 95,74 %
17.02.2016 07:34 -3,8 C -3,9 C -5,6 C 91 % 0 lf 1025,3 hPa 0,0 l/m 0 min 0 min 0 W/m 6,3 km/h (2 Bft) 95,65 %
17.02.2016 07:36 -3,8 C -3,9 C -5,6 C 91 % 0 lf 1025,3 hPa 0,0 l/m 0 min 0 min 0 W/m 6,3 km/h (2 Bft) 96,00 %
17.02.2016 07:38 -3,8 C -3,9 C -5,6 C 91 % 1 lf 1025,3 hPa 0,0 l/m 0 min 0 min 0 W/m 6,3 km/h (2 Bft) 95,74 %
17.02.2016 07:40 -3,8 C -3,9 C -5,6 C 91 % 1 lf 1025,2 hPa 0,0 l/m 0 min 0 min 1 W/m 4,2 km/h (1 Bft) 97,87 %
17.02.2016 07:42 -3,8 C -3,9 C -5,6 C 91 % 1 lf 1025,3 hPa 0,0 l/m 0 min 0 min 5 W/m 4,2 km/h (1 Bft) 97,73 %
17.02.2016 07:44 -3,8 C -3,9 C -5,6 C 91 % 1 lf 1025,2 hPa 0,0 l/m 0 min 0 min 5 W/m 4,2 km/h (1 Bft) 97,87 %
17.02.2016 07:46 -3,8 C -3,9 C -5,6 C 91 % 1 lf 1025,2 hPa 0,0 l/m 0 min 0 min 7 W/m 4,2 km/h (1 Bft) 95,92 %
17.02.2016 07:48 -3,8 C -3,9 C -5,6 C 91 % 1 lf 1025,3 hPa 0,0 l/m 0 min 0 min 7 W/m 4,2 km/h (1 Bft) 95,74 %
17.02.2016 07:50 -3,9 C -3,9 C -5,6 C 91 % 1 lf 1025,2 hPa 0,0 l/m 0 min 0 min 9 W/m 4,2 km/h (1 Bft) 89,36 %
17.02.2016 07:52 -3,9 C -4,4 C -5,6 C 91 % 1 lf 1025,2 hPa 0,0 l/m 0 min 0 min 10 W/m 2,1 km/h (1 Bft) 97,87 %
17.02.2016 07:54 -3,9 C -4,4 C -5,6 C 91 % 1 lf 1025,1 hPa 0,0 l/m 0 min 0 min 11 W/m 2,1 km/h (1 Bft) 95,74 %
17.02.2016 07:56 -3,9 C -4,4 C -5,6 C 91 % 1 lf 1025,1 hPa 0,0 l/m 0 min 0 min 12 W/m 4,2 km/h (1 Bft) 95,65 %
17.02.2016 07:58 -3,9 C -4,4 C -5,6 C 91 % 1 lf 1025,1 hPa 0,0 l/m 0 min 0 min 13 W/m 4,2 km/h (1 Bft) 95,74 %
17.02.2016 08:00 -3,9 C -4,4 C -5,6 C 91 % 1 lf 1025,2 hPa 0,0 l/m 0 min 0 min 15 W/m 4,2 km/h (1 Bft) 95,74 %
17.02.2016 08:02 -3,9 C -5,0 C -5,6 C 91 % 1 lf 1025,2 hPa 0,0 l/m 0 min 0 min 16 W/m 2,1 km/h (1 Bft) 95,74 %
17.02.2016 08:04 -4,0 C -5,0 C -5,6 C 91 % 1 lf 1025,1 hPa 0,0 l/m 0 min 0 min 18 W/m 0,0 km/h (0 Bft) 98,00 %
17.02.2016 08:06 -4,0 C -5,0 C -5,6 C 91 % 1 lf 1025,1 hPa 0,0 l/m 2 min 0 min 19 W/m 0,0 km/h (0 Bft) 95,74 %
17.02.2016 08:08 -4,0 C -5,0 C -5,6 C 91 % 1 lf 1025,2 hPa 0,0 l/m 2 min 0 min 21 W/m 0,0 km/h (0 Bft) 95,65 %
17.02.2016 08:10 -4,1 C -5,0 C -5,6 C 91 % 1 lf 1025,1 hPa 0,0 l/m 2 min 0 min 24 W/m 2,1 km/h (1 Bft) 95,74 %
17.02.2016 08:12 -4,1 C -4,4 C -5,6 C 91 % 1 lf 1025,0 hPa 0,0 l/m 2 min 0 min 27 W/m 0,0 km/h (0 Bft) 93,62 %
17.02.2016 08:14 -4,1 C -4,4 C -5,6 C 91 % 0 lf 1025,0 hPa 0,0 l/m 2 min 0 min 30 W/m 0,0 km/h (0 Bft) 97,14 %
17.02.2016 08:16 -4,1 C -4,4 C -5,6 C 91 % 0 lf 1025,0 hPa 0,0 l/m 2 min 0 min 33 W/m 0,0 km/h (0 Bft) 94,64 %
17.02.2016 08:18 -4,1 C -4,4 C -5,6 C 91 % 0 lf 1025,0 hPa 0,0 l/m 2 min 0 min 38 W/m 0,0 km/h (0 Bft) 97,87 %
17.02.2016 08:20 -4,1 C -4,4 C -5,6 C 91 % 0 lf 1025,0 hPa 0,0 l/m 2 min 0 min 40 W/m 0,0 km/h (0 Bft) 97,83 %
17.02.2016 08:22 -4,1 C -4,4 C -5,6 C 91 % 0 lf 1025,0 hPa 0,0 l/m 2 min 0 min 44 W/m 0,0 km/h (0 Bft) 97,87 %
17.02.2016 08:24 -4,2 C -4,4 C -5,6 C 91 % 0 lf 1024,9 hPa 0,0 l/m 2 min 0 min 47 W/m 0,0 km/h (0 Bft) 95,74 %
17.02.2016 08:26 -4,2 C -4,4 C -5,6 C 91 % 0 lf 1024,9 hPa 0,0 l/m 2 min 0 min 49 W/m 0,0 km/h (0 Bft) 97,87 %
17.02.2016 08:28 -4,2 C -4,4 C -5,6 C 91 % 0 lf 1024,8 hPa 0,0 l/m 2 min 0 min 52 W/m 2,1 km/h (1 Bft) 95,74 %
17.02.2016 08:30 -4,2 C -4,4 C -5,6 C 91 % 0 lf 1024,8 hPa 0,0 l/m 2 min 0 min 53 W/m 2,1 km/h (1 Bft) 97,83 %
17.02.2016 08:32 -4,2 C -3,9 C -5,6 C 91 % 0 lf 1024,8 hPa 0,0 l/m 2 min 0 min 53 W/m 6,3 km/h (2 Bft) 97,87 %
17.02.2016 08:34 -4,2 C -3,9 C -5,6 C 91 % 0 lf 1024,8 hPa 0,0 l/m 2 min 0 min 51 W/m 8,4 km/h (2 Bft) 95,74 %
17.02.2016 08:36 -4,3 C -3,9 C -5,0 C 91 % 0 lf 1024,8 hPa 0,0 l/m 0 min 0 min 43 W/m 8,4 km/h (2 Bft) 95,74 %
17.02.2016 08:38 -4,3 C -3,3 C -5,0 C 91 % 0 lf 1024,8 hPa 0,0 l/m 2 min 0 min 52 W/m 6,3 km/h (2 Bft) 95,74 %
17.02.2016 08:40 -4,3 C -3,3 C -5,0 C 91 % 0 lf 1024,7 hPa 0,0 l/m 2 min 0 min 66 W/m 6,3 km/h (2 Bft) 95,74 %
17.02.2016 08:42 -4,2 C -2,8 C -5,0 C 91 % 0 lf 1024,6 hPa 0,0 l/m 2 min 0 min 64 W/m 6,3 km/h (2 Bft) 95,65 %
17.02.2016 08:44 -4,2 C -2,8 C -4,4 C 91 % 0 lf 1024,5 hPa 0,0 l/m 2 min 0 min 66 W/m 6,3 km/h (2 Bft) 93,62 %
17.02.2016 08:46 -4,1 C -2,8 C -4,4 C 91 % 0 lf 1024,6 hPa 0,0 l/m 0 min 0 min 52 W/m 8,4 km/h (2 Bft) 95,74 %
17.02.2016 08:48 -4,1 C -2,2 C -3,9 C 91 % 0 lf 1024,6 hPa 0,0 l/m 0 min 0 min 53 W/m 8,4 km/h (2 Bft) 97,87 %
17.02.2016 08:50 -4,0 C -2,2 C -3,9 C 92 % 0 lf 1024,6 hPa 0,0 l/m 0 min 0 min 50 W/m 8,4 km/h (2 Bft) 95,74 %
17.02.2016 08:52 -3,9 C -2,2 C -3,9 C 92 % 0 lf 1024,6 hPa 0,0 l/m 0 min 0 min 50 W/m 8,4 km/h (2 Bft) 93,62 %
17.02.2016 08:54 -3,8 C -2,2 C -3,9 C 92 % 0 lf 1024,5 hPa 0,0 l/m 0 min 0 min 59 W/m 6,3 km/h (2 Bft) 97,83 %
17.02.2016 08:56 -3,8 C -2,2 C -3,9 C 92 % 0 lf 1024,4 hPa 0,0 l/m 2 min 0 min 69 W/m 8,4 km/h (2 Bft) 95,74 %
17.02.2016 08:58 -3,7 C -2,2 C -3,9 C 92 % 0 lf 1024,4 hPa 0,0 l/m 2 min 0 min 109 W/m 6,3 km/h (2 Bft) 95,74 %
17.02.2016 09:00 -3,7 C -2,2 C -3,9 C 92 % 0 lf 1024,3 hPa 0,0 l/m 2 min 0 min 97 W/m 8,4 km/h (2 Bft) 97,87 %
17.02.2016 09:02 -3,6 C -2,2 C -3,9 C 92 % 0 lf 1024,3 hPa 0,0 l/m 2 min 0 min 105 W/m 6,3 km/h (2 Bft) 93,62 %
17.02.2016 09:04 -3,6 C -2,2 C -3,9 C 92 % 0 lf 1024,2 hPa 0,0 l/m 2 min 0 min 108 W/m 6,3 km/h (2 Bft) 95,74 %
17.02.2016 09:06 -3,5 C -1,7 C -3,3 C 92 % 0 lf 1024,3 hPa 0,0 l/m 2 min 0 min 125 W/m 8,4 km/h (2 Bft) 93,48 %
17.02.2016 09:08 -3,4 C -1,7 C -3,3 C 92 % 0 lf 1024,2 hPa 0,0 l/m 2 min 0 min 149 W/m 8,4 km/h (2 Bft) 95,74 %
17.02.2016 09:10 -3,4 C -1,7 C -3,3 C 92 % 0 lf 1024,2 hPa 0,0 l/m 2 min 0 min 180 W/m 10,5 km/h (2 Bft) 95,74 %
17.02.2016 09:12 -3,3 C -1,7 C -3,3 C 92 % 0 lf 1024,2 hPa 0,0 l/m 2 min 0 min 160 W/m 8,4 km/h (2 Bft) 95,74 %
17.02.2016 09:14 -3,3 C -1,7 C -3,3 C 93 % 0 lf 1024,1 hPa 0,0 l/m 2 min 0 min 158 W/m 8,4 km/h (2 Bft) 90,00 %
17.02.2016 09:16 -3,2 C -1,7 C -3,3 C 93 % 0 lf 1024,0 hPa 0,0 l/m 2 min 0 min 163 W/m 8,4 km/h (2 Bft) 95,65 %
17.02.2016 09:18 -3,1 C -1,7 C -3,3 C 93 % 0 lf 1024,0 hPa 0,0 l/m 2 min 0 min 170 W/m 10,5 km/h (2 Bft) 95,74 %
17.02.2016 09:20 -3,1 C -1,1 C -3,3 C 93 % 0 lf 1024,0 hPa 0,0 l/m 2 min 0 min 174 W/m 8,4 km/h (2 Bft) 93,62 %
17.02.2016 09:22 -3,1 C 0,0 C -3,3 C 93 % 0 lf 1023,9 hPa 0,0 l/m 2 min 0 min 180 W/m 6,3 km/h (2 Bft) 93,62 %
17.02.2016 09:24 -3,0 C 2,2 C -2,8 C 93 % 0 lf 1023,8 hPa 0,0 l/m 2 min 0 min 186 W/m 8,4 km/h (2 Bft) 89,36 %
17.02.2016 09:26 -2,9 C 3,9 C -3,3 C 93 % 0 lf 1023,8 hPa 0,0 l/m 2 min 0 min 190 W/m 6,3 km/h (2 Bft) 91,49 %
17.02.2016 09:28 -2,8 C 4,4 C -2,8 C 93 % 0 lf 1023,8 hPa 0,0 l/m 2 min 0 min 196 W/m 8,4 km/h (2 Bft) 93,48 %
17.02.2016 09:30 -2,7 C 5,0 C -2,8 C 93 % 0 lf 1023,7 hPa 0,0 l/m 2 min 0 min 200 W/m 14,6 km/h (3 Bft) 93,62 %
17.02.2016 09:32 -2,6 C 5,6 C -2,8 C 93 % 0 lf 1023,8 hPa 0,0 l/m 2 min 0 min 206 W/m 16,7 km/h (3 Bft) 93,62 %
17.02.2016 09:34 -2,5 C 5,6 C -2,8 C 93 % 0 lf 1023,8 hPa 0,0 l/m 2 min 0 min 208 W/m 14,6 km/h (3 Bft) 93,62 %
17.02.2016 09:36 -2,3 C 3,9 C -2,2 C 94 % 0 lf 1023,7 hPa 0,0 l/m 2 min 0 min 216 W/m 10,5 km/h (2 Bft) 93,62 %
17.02.2016 09:38 -2,1 C 5,6 C -2,2 C 94 % 0 lf 1023,7 hPa 0,0 l/m 2 min 0 min 222 W/m 10,5 km/h (2 Bft) 95,74 %
17.02.2016 09:40 -2,0 C 5,0 C -2,2 C 94 % 0 lf 1023,7 hPa 0,0 l/m 2 min 0 min 229 W/m 14,6 km/h (3 Bft) 95,65 %
17.02.2016 09:42 -1,8 C 6,1 C -2,2 C 94 % 0 lf 1023,6 hPa 0,0 l/m 2 min 0 min 229 W/m 14,6 km/h (3 Bft) 95,74 %
17.02.2016 09:44 -1,7 C 5,0 C -1,7 C 94 % 0 lf 1023,6 hPa 0,0 l/m 2 min 0 min 233 W/m 10,5 km/h (2 Bft) 95,74 %
17.02.2016 09:46 -1,6 C 5,0 C -0,6 C 94 % 0 lf 1023,5 hPa 0,0 l/m 2 min 0 min 238 W/m 14,6 km/h (3 Bft) 95,74 %
17.02.2016 09:48 -1,4 C 5,0 C 0,6 C 94 % 0 lf 1023,5 hPa 0,0 l/m 2 min 0 min 244 W/m 6,3 km/h (2 Bft) 87,23 %
17.02.2016 09:50 -1,2 C 4,4 C 1,1 C 94 % 0 lf 1023,5 hPa 0,0 l/m 2 min 0 min 252 W/m 14,6 km/h (3 Bft) 93,62 %
17.02.2016 09:52 -1,1 C 5,0 C 2,2 C 94 % 0 lf 1023,4 hPa 0,0 l/m 2 min 0 min 256 W/m 14,6 km/h (3 Bft) 95,65 %
17.02.2016 09:54 -1,0 C 6,1 C 2,8 C 93 % 0 lf 1023,4 hPa 0,0 l/m 2 min 0 min 262 W/m 12,6 km/h (3 Bft) 93,62 %
17.02.2016 09:56 -0,8 C 6,7 C 2,8 C 93 % 0 lf 1023,3 hPa 0,0 l/m 2 min 0 min 266 W/m 14,6 km/h (3 Bft) 93,62 %
17.02.2016 09:58 -0,7 C 7,2 C 2,8 C 93 % 0 lf 1023,2 hPa 0,0 l/m 2 min 0 min 271 W/m 16,7 km/h (3 Bft) 97,87 %
17.02.2016 10:00 -0,6 C 8,3 C 3,3 C 93 % 0 lf 1023,1 hPa 0,0 l/m 2 min 0 min 275 W/m 16,7 km/h (3 Bft) 100,00 %
17.02.2016 10:02 -0,5 C 6,7 C 2,8 C 93 % 0 lf 1023,2 hPa 0,0 l/m 2 min 0 min 280 W/m 18,8 km/h (3 Bft) 93,62 %
17.02.2016 10:04 -0,4 C 6,1 C 2,2 C 93 % 0 lf 1023,2 hPa 0,0 l/m 2 min 0 min 285 W/m 18,8 km/h (3 Bft) 97,83 %
17.02.2016 10:06 -0,3 C 5,6 C 1,1 C 92 % 0 lf 1023,3 hPa 0,0 l/m 2 min 0 min 289 W/m 23,0 km/h (4 Bft) 97,87 %
17.02.2016 10:08 -0,2 C 5,6 C 0,6 C 92 % 0 lf 1023,2 hPa 0,0 l/m 2 min 0 min 295 W/m 20,9 km/h (4 Bft) 97,87 %
17.02.2016 10:10 -0,1 C 6,7 C 0,0 C 91 % 0 lf 1023,2 hPa 0,0 l/m 2 min 0 min 297 W/m 16,7 km/h (3 Bft) 97,87 %
17.02.2016 10:12 0,0 C 7,8 C 0,0 C 91 % 0 lf 1023,1 hPa 0,0 l/m 2 min 0 min 302 W/m 14,6 km/h (3 Bft) 97,87 %
17.02.2016 10:14 0,1 C 7,8 C -0,6 C 90 % 0 lf 1023,1 hPa 0,0 l/m 2 min 0 min 306 W/m 14,6 km/h (3 Bft) 93,48 %
17.02.2016 10:16 0,2 C 6,7 C -0,6 C 90 % 0 lf 1023,1 hPa 0,0 l/m 2 min 0 min 309 W/m 16,7 km/h (3 Bft) 97,87 %
17.02.2016 10:18 0,3 C 6,7 C -0,6 C 89 % 0 lf 1023,0 hPa 0,0 l/m 2 min 0 min 313 W/m 23,0 km/h (4 Bft) 95,74 %
17.02.2016 10:20 0,4 C 6,7 C -0,6 C 89 % 0 lf 1023,0 hPa 0,0 l/m 2 min 0 min 316 W/m 18,8 km/h (3 Bft) 95,74 %
17.02.2016 10:22 0,5 C 6,7 C -0,6 C 88 % 0 lf 1023,0 hPa 0,0 l/m 2 min 0 min 321 W/m 14,6 km/h (3 Bft) 95,74 %
17.02.2016 10:24 0,5 C 7,2 C -0,6 C 87 % 0 lf 1023,0 hPa 0,0 l/m 2 min 0 min 324 W/m 23,0 km/h (4 Bft) 97,87 %
17.02.2016 10:26 0,6 C 7,2 C -0,6 C 87 % 0 lf 1022,9 hPa 0,0 l/m 2 min 0 min 327 W/m 20,9 km/h (4 Bft) 100,00 %
17.02.2016 10:28 0,7 C 6,7 C -0,6 C 86 % 0 lf 1022,9 hPa 0,0 l/m 2 min 0 min 331 W/m 20,9 km/h (4 Bft) 100,00 %
17.02.2016 10:30 0,8 C 6,7 C -0,6 C 85 % 0 lf 1022,8 hPa 0,0 l/m 2 min 0 min 334 W/m 20,9 km/h (4 Bft) 95,74 %
17.02.2016 10:32 0,8 C 7,8 C -0,6 C 85 % 0 lf 1022,8 hPa 0,0 l/m 2 min 0 min 339 W/m 18,8 km/h (3 Bft) 97,87 %
17.02.2016 10:34 0,9 C 6,7 C -0,6 C 85 % 0 lf 1022,8 hPa 0,0 l/m 2 min 0 min 345 W/m 16,7 km/h (3 Bft) 95,74 %
17.02.2016 10:36 1,0 C 6,1 C 0,0 C 84 % 0 lf 1022,7 hPa 0,0 l/m 2 min 0 min 346 W/m 16,7 km/h (3 Bft) 95,74 %
17.02.2016 10:38 1,1 C 6,1 C 0,0 C 84 % 0 lf 1022,7 hPa 0,0 l/m 2 min 0 min 349 W/m 12,6 km/h (3 Bft) 97,83 %
17.02.2016 10:40 1,1 C 7,2 C 0,0 C 83 % 0 lf 1022,7 hPa 0,2 l/m 2 min 0 min 352 W/m 25,1 km/h (4 Bft) 87,23 %
17.02.2016 10:42 1,2 C 7,2 C 0,0 C 83 % 0 lf 1022,6 hPa 0,0 l/m 2 min 0 min 354 W/m 16,7 km/h (3 Bft) 97,87 %
17.02.2016 10:44 1,3 C 6,7 C 0,0 C 83 % 0 lf 1022,6 hPa 0,0 l/m 2 min 0 min 362 W/m 16,7 km/h (3 Bft) 97,87 %
17.02.2016 10:46 1,3 C 7,8 C 0,0 C 82 % 0 lf 1022,6 hPa 0,0 l/m 2 min 0 min 363 W/m 12,6 km/h (3 Bft) 95,74 %
17.02.2016 10:48 1,4 C 6,7 C 0,0 C 82 % 0 lf 1022,5 hPa 0,0 l/m 2 min 0 min 364 W/m 18,8 km/h (3 Bft) 97,87 %
17.02.2016 10:50 1,4 C 6,7 C 0,0 C 81 % 0 lf 1022,4 hPa 0,0 l/m 2 min 0 min 365 W/m 14,6 km/h (3 Bft) 95,65 %
17.02.2016 10:52 1,5 C 6,1 C 0,0 C 81 % 0 lf 1022,3 hPa 0,0 l/m 2 min 0 min 368 W/m 20,9 km/h (4 Bft) 95,74 %
17.02.2016 10:54 1,6 C 7,8 C 0,0 C 81 % 0 lf 1022,2 hPa 0,0 l/m 2 min 0 min 357 W/m 14,6 km/h (3 Bft) 97,87 %
17.02.2016 10:56 1,6 C 8,9 C 0,0 C 81 % 0 lf 1022,1 hPa 0,0 l/m 2 min 0 min 372 W/m 14,6 km/h (3 Bft) 97,87 %
17.02.2016 10:58 1,7 C 8,3 C 0,0 C 81 % 0 lf 1022,1 hPa 0,0 l/m 2 min 0 min 374 W/m 14,6 km/h (3 Bft) 95,74 %
17.02.2016 11:00 1,7 C 9,4 C 0,6 C 81 % 0 lf 1022,1 hPa 0,0 l/m 2 min 0 min 380 W/m 12,6 km/h (3 Bft) 95,74 %
17.02.2016 11:02 1,8 C 10,6 C 0,6 C 81 % 0 lf 1022,1 hPa 0,0 l/m 2 min 0 min 380 W/m 16,7 km/h (3 Bft) 97,83 %
17.02.2016 11:04 1,8 C 11,7 C 0,6 C 81 % 0 lf 1022,0 hPa 0,0 l/m 2 min 0 min 383 W/m 16,7 km/h (3 Bft) 95,74 %
17.02.2016 11:06 1,9 C 10,0 C 0,6 C 81 % 0 lf 1022,0 hPa 0,0 l/m 2 min 0 min 388 W/m 14,6 km/h (3 Bft) 97,87 %
17.02.2016 11:08 2,0 C 9,4 C 0,6 C 80 % 0 lf 1021,9 hPa 0,0 l/m 2 min 0 min 392 W/m 10,5 km/h (2 Bft) 91,49 %
17.02.2016 11:10 2,1 C 8,3 C 0,6 C 80 % 0 lf 1021,8 hPa 0,0 l/m 2 min 0 min 393 W/m 10,5 km/h (2 Bft) 93,62 %
17.02.2016 11:12 2,2 C 8,9 C 0,6 C 80 % 0 lf 1021,8 hPa 0,0 l/m 2 min 0 min 394 W/m 12,6 km/h (3 Bft) 93,62 %
17.02.2016 11:14 2,2 C 8,9 C 0,6 C 79 % 0 lf 1021,8 hPa 0,0 l/m 2 min 0 min 403 W/m 18,8 km/h (3 Bft) 95,65 %
17.02.2016 11:16 2,3 C 7,8 C 0,6 C 79 % 0 lf 1021,8 hPa 0,0 l/m 2 min 0 min 398 W/m 14,6 km/h (3 Bft) 93,62 %
17.02.2016 11:18 2,3 C 7,2 C 0,6 C 79 % 0 lf 1021,7 hPa 0,0 l/m 2 min 0 min 404 W/m 18,8 km/h (3 Bft) 95,74 %
17.02.2016 11:20 2,4 C 7,2 C 0,6 C 78 % 0 lf 1021,6 hPa 0,0 l/m 2 min 0 min 406 W/m 12,6 km/h (3 Bft) 97,87 %
17.02.2016 11:22 2,4 C 9,4 C 0,6 C 78 % 0 lf 1021,6 hPa 0,0 l/m 2 min 0 min 405 W/m 16,7 km/h (3 Bft) 97,87 %
17.02.2016 11:24 2,4 C 9,4 C 0,6 C 78 % 0 lf 1021,5 hPa 0,0 l/m 2 min 0 min 408 W/m 18,8 km/h (3 Bft) 93,48 %
17.02.2016 11:26 2,5 C 9,4 C 1,1 C 78 % 0 lf 1021,5 hPa 0,0 l/m 2 min 0 min 412 W/m 25,1 km/h (4 Bft) 95,74 %
17.02.2016 11:28 2,5 C 10,0 C 1,1 C 78 % 0 lf 1021,5 hPa 0,0 l/m 2 min 0 min 411 W/m 16,7 km/h (3 Bft) 95,74 %
17.02.2016 11:30 2,6 C 10,0 C 1,7 C 78 % 0 lf 1021,5 hPa 0,0 l/m 2 min 0 min 413 W/m 20,9 km/h (4 Bft) 95,74 %
17.02.2016 11:32 2,7 C 10,6 C 2,2 C 78 % 0 lf 1021,4 hPa 0,0 l/m 2 min 0 min 416 W/m 10,5 km/h (2 Bft) 97,87 %
17.02.2016 11:34 2,7 C 12,2 C 2,2 C 78 % 0 lf 1021,4 hPa 0,0 l/m 2 min 0 min 410 W/m 12,6 km/h (3 Bft) 95,74 %
17.02.2016 11:36 2,8 C 11,7 C 2,8 C 78 % 0 lf 1021,2 hPa 0,0 l/m 2 min 0 min 419 W/m 14,6 km/h (3 Bft) 95,65 %
17.02.2016 11:38 2,9 C 10,0 C 3,3 C 78 % 0 lf 1021,2 hPa 0,0 l/m 2 min 0 min 420 W/m 16,7 km/h (3 Bft) 97,87 %
17.02.2016 11:40 2,9 C 11,1 C 3,9 C 77 % 0 lf 1021,1 hPa 0,0 l/m 2 min 0 min 422 W/m 14,6 km/h (3 Bft) 97,87 %
17.02.2016 11:42 3,0 C 10,6 C 3,9 C 77 % 0 lf 1021,1 hPa 0,0 l/m 2 min 0 min 430 W/m 20,9 km/h (4 Bft) 97,87 %
17.02.2016 11:44 3,1 C 10,6 C 3,9 C 77 % 0 lf 1021,1 hPa 0,0 l/m 2 min 0 min 432 W/m 20,9 km/h (4 Bft) 93,62 %
17.02.2016 11:46 3,2 C 9,4 C 3,9 C 76 % 0 lf 1021,0 hPa 0,0 l/m 2 min 0 min 432 W/m 12,6 km/h (3 Bft) 97,87 %
17.02.2016 11:48 3,2 C 10,6 C 3,9 C 76 % 0 lf 1021,0 hPa 0,0 l/m 2 min 0 min 434 W/m 18,8 km/h (3 Bft) 95,65 %
17.02.2016 11:50 3,3 C 10,6 C 4,4 C 76 % 0 lf 1021,0 hPa 0,0 l/m 2 min 0 min 434 W/m 18,8 km/h (3 Bft) 100,00 %
17.02.2016 11:52 3,3 C 12,2 C 4,4 C 76 % 0 lf 1020,9 hPa 0,0 l/m 2 min 0 min 437 W/m 14,6 km/h (3 Bft) 100,00 %
17.02.2016 11:54 3,4 C 11,1 C 4,4 C 76 % 0 lf 1020,9 hPa 0,0 l/m 2 min 0 min 436 W/m 14,6 km/h (3 Bft) 100,00 %
17.02.2016 11:56 3,5 C 11,7 C 5,0 C 76 % 0 lf 1020,9 hPa 0,0 l/m 2 min 0 min 438 W/m 16,7 km/h (3 Bft) 100,00 %
17.02.2016 11:58 3,6 C 12,8 C 5,0 C 75 % 0 lf 1020,8 hPa 0,0 l/m 2 min 0 min 441 W/m 12,6 km/h (3 Bft) 97,87 %
17.02.2016 12:00 3,6 C 11,1 C 4,4 C 75 % 0 lf 1020,8 hPa 0,0 l/m 2 min 0 min 441 W/m 16,7 km/h (3 Bft) 100,00 %
17.02.2016 12:02 3,7 C 9,4 C 3,9 C 75 % 0 lf 1020,6 hPa 0,0 l/m 2 min 0 min 443 W/m 16,7 km/h (3 Bft) 91,49 %
17.02.2016 12:04 3,7 C 10,0 C 3,9 C 74 % 0 lf 1020,6 hPa 0,0 l/m 2 min 0 min 444 W/m 18,8 km/h (3 Bft) 97,87 %
17.02.2016 12:06 3,7 C 11,1 C 3,3 C 74 % 0 lf 1020,5 hPa 0,0 l/m 2 min 0 min 448 W/m 10,5 km/h (2 Bft) 95,74 %
17.02.2016 12:08 3,8 C 10,6 C 2,8 C 74 % 0 lf 1020,4 hPa 0,0 l/m 2 min 0 min 446 W/m 12,6 km/h (3 Bft) 100,00 %
17.02.2016 12:10 3,8 C 11,7 C 2,8 C 74 % 0 lf 1020,3 hPa 0,0 l/m 2 min 0 min 449 W/m 14,6 km/h (3 Bft) 100,00 %
17.02.2016 12:12 3,9 C 12,8 C 2,8 C 74 % 0 lf 1020,3 hPa 0,0 l/m 2 min 0 min 451 W/m 12,6 km/h (3 Bft) 97,83 %
17.02.2016 12:14 3,9 C 12,8 C 2,8 C 74 % 0 lf 1020,3 hPa 0,0 l/m 2 min 0 min 451 W/m 12,6 km/h (3 Bft) 97,87 %
17.02.2016 12:16 4,0 C 11,1 C 2,8 C 74 % 0 lf 1020,1 hPa 0,0 l/m 2 min 0 min 449 W/m 16,7 km/h (3 Bft) 100,00 %
17.02.2016 12:18 4,0 C 10,0 C 2,2 C 73 % 0 lf 1020,1 hPa 0,0 l/m 2 min 0 min 452 W/m 16,7 km/h (3 Bft) 100,00 %
17.02.2016 12:20 4,1 C 11,7 C 2,2 C 73 % 0 lf 1020,1 hPa 0,0 l/m 2 min 0 min 455 W/m 14,6 km/h (3 Bft) 97,87 %
17.02.2016 12:22 4,1 C 11,1 C 2,8 C 73 % 0 lf 1019,9 hPa 0,0 l/m 2 min 0 min 456 W/m 12,6 km/h (3 Bft) 97,87 %
17.02.2016 12:24 4,1 C 11,7 C 2,8 C 73 % 0 lf 1019,9 hPa 0,0 l/m 2 min 0 min 457 W/m 12,6 km/h (3 Bft) 100,00 %
17.02.2016 12:26 4,2 C 10,0 C 2,8 C 73 % 0 lf 1019,9 hPa 0,0 l/m 2 min 0 min 454 W/m 14,6 km/h (3 Bft) 97,87 %
17.02.2016 12:28 4,2 C 10,6 C 2,2 C 73 % 0 lf 1019,8 hPa 0,0 l/m 2 min 0 min 451 W/m 12,6 km/h (3 Bft) 97,87 %
17.02.2016 12:30 4,2 C 11,7 C 2,2 C 73 % 0 lf 1019,7 hPa 0,0 l/m 2 min 0 min 458 W/m 18,8 km/h (3 Bft) 100,00 %
17.02.2016 12:32 4,2 C 11,7 C 2,2 C 73 % 0 lf 1019,7 hPa 0,0 l/m 2 min 0 min 457 W/m 14,6 km/h (3 Bft) 100,00 %
17.02.2016 12:34 4,3 C 11,1 C 2,8 C 72 % 0 lf 1019,6 hPa 0,0 l/m 2 min 0 min 457 W/m 14,6 km/h (3 Bft) 100,00 %
17.02.2016 12:36 4,3 C 11,7 C 2,2 C 72 % 0 lf 1019,6 hPa 0,0 l/m 2 min 0 min 456 W/m 12,6 km/h (3 Bft) 100,00 %
17.02.2016 12:38 4,4 C 12,8 C 2,2 C 72 % 0 lf 1019,5 hPa 0,0 l/m 2 min 0 min 457 W/m 10,5 km/h (2 Bft) 93,62 %
17.02.2016 12:40 4,4 C 13,9 C 2,8 C 73 % 0 lf 1019,5 hPa 0,0 l/m 2 min 0 min 461 W/m 10,5 km/h (2 Bft) 100,00 %
17.02.2016 12:42 4,5 C 13,3 C 2,8 C 73 % 0 lf 1019,4 hPa 0,0 l/m 2 min 0 min 457 W/m 14,6 km/h (3 Bft) 97,87 %
17.02.2016 12:44 4,6 C 12,8 C 2,2 C 72 % 0 lf 1019,3 hPa 0,0 l/m 2 min 0 min 459 W/m 12,6 km/h (3 Bft) 100,00 %
17.02.2016 12:46 4,6 C 10,6 C 2,2 C 72 % 0 lf 1019,3 hPa 0,0 l/m 2 min 0 min 459 W/m 16,7 km/h (3 Bft) 97,83 %
17.02.2016 12:48 4,6 C 11,1 C 2,2 C 72 % 0 lf 1019,3 hPa 0,0 l/m 2 min 0 min 460 W/m 16,7 km/h (3 Bft) 97,87 %
17.02.2016 12:50 4,6 C 11,7 C 2,8 C 72 % 0 lf 1019,2 hPa 0,0 l/m 2 min 0 min 455 W/m 16,7 km/h (3 Bft) 95,74 %
17.02.2016 12:52 4,7 C 11,7 C 2,8 C 72 % 0 lf 1019,3 hPa 0,0 l/m 2 min 0 min 452 W/m 10,5 km/h (2 Bft) 95,74 %
17.02.2016 12:54 4,7 C 10,0 C 2,8 C 72 % 0 lf 1019,2 hPa 0,0 l/m 2 min 0 min 448 W/m 14,6 km/h (3 Bft) 91,49 %
17.02.2016 12:56 4,7 C 9,4 C 2,8 C 71 % 0 lf 1019,3 hPa 0,0 l/m 2 min 0 min 445 W/m 12,6 km/h (3 Bft) 91,49 %
17.02.2016 12:58 4,7 C 10,6 C 2,8 C 71 % 0 lf 1019,3 hPa 0,0 l/m 2 min 0 min 443 W/m 16,7 km/h (3 Bft) 95,65 %
17.02.2016 13:00 4,7 C 10,6 C 2,8 C 72 % 0 lf 1019,3 hPa 0,0 l/m 2 min 0 min 446 W/m 18,8 km/h (3 Bft) 93,62 %
17.02.2016 13:02 4,7 C 8,9 C 2,8 C 71 % 0 lf 1019,3 hPa 0,0 l/m 2 min 0 min 447 W/m 16,7 km/h (3 Bft) 91,49 %
17.02.2016 13:04 4,6 C 8,3 C 2,8 C 71 % 0 lf 1019,2 hPa 0,0 l/m 2 min 0 min 450 W/m 23,0 km/h (4 Bft) 95,74 %
17.02.2016 13:06 4,5 C 7,2 C 2,8 C 71 % 0 lf 1019,2 hPa 0,0 l/m 2 min 0 min 451 W/m 12,6 km/h (3 Bft) 93,62 %
17.02.2016 13:08 4,4 C 8,3 C 2,8 C 71 % 0 lf 1019,2 hPa 0,0 l/m 2 min 0 min 445 W/m 12,6 km/h (3 Bft) 95,74 %
17.02.2016 13:10 4,4 C 10,0 C 2,8 C 71 % 0 lf 1019,1 hPa 0,0 l/m 2 min 0 min 445 W/m 10,5 km/h (2 Bft) 95,65 %
17.02.2016 13:12 4,4 C 9,4 C 2,8 C 72 % 0 lf 1019,0 hPa 0,0 l/m 2 min 0 min 449 W/m 12,6 km/h (3 Bft) 95,74 %
17.02.2016 13:14 4,4 C 8,9 C 2,8 C 72 % 0 lf 1019,0 hPa 0,0 l/m 2 min 0 min 451 W/m 14,6 km/h (3 Bft) 91,49 %
17.02.2016 13:16 4,4 C 8,3 C 2,8 C 72 % 0 lf 1018,9 hPa 0,0 l/m 2 min 0 min 445 W/m 10,5 km/h (2 Bft) 95,74 %
17.02.2016 13:18 4,3 C 8,9 C 2,8 C 72 % 0 lf 1018,8 hPa 0,0 l/m 2 min 0 min 442 W/m 14,6 km/h (3 Bft) 95,74 %
17.02.2016 13:20 4,3 C 11,1 C 2,8 C 73 % 0 lf 1018,8 hPa 0,0 l/m 2 min 0 min 444 W/m 10,5 km/h (2 Bft) 93,62 %
17.02.2016 13:22 4,3 C 12,8 C 2,8 C 73 % 0 lf 1018,7 hPa 0,0 l/m 2 min 0 min 439 W/m 14,6 km/h (3 Bft) 95,65 %
17.02.2016 13:24 4,4 C 12,8 C 2,8 C 73 % 0 lf 1018,7 hPa 0,0 l/m 2 min 0 min 438 W/m 14,6 km/h (3 Bft) 93,62 %
17.02.2016 13:26 4,4 C 11,7 C 2,8 C 73 % 0 lf 1018,7 hPa 0,0 l/m 2 min 0 min 434 W/m 10,5 km/h (2 Bft) 93,62 %
17.02.2016 13:28 4,5 C 10,0 C 2,8 C 73 % 0 lf 1018,6 hPa 0,0 l/m 2 min 0 min 435 W/m 16,7 km/h (3 Bft) 91,49 %
17.02.2016 13:30 4,5 C 10,0 C 2,8 C 72 % 0 lf 1018,6 hPa 0,0 l/m 2 min 0 min 435 W/m 14,6 km/h (3 Bft) 89,36 %
17.02.2016 13:32 4,6 C 8,9 C 2,8 C 72 % 0 lf 1018,6 hPa 0,0 l/m 2 min 0 min 437 W/m 14,6 km/h (3 Bft) 95,74 %
17.02.2016 13:34 4,6 C 9,4 C 2,8 C 72 % 0 lf 1018,5 hPa 0,0 l/m 2 min 0 min 437 W/m 12,6 km/h (3 Bft) 95,65 %
17.02.2016 13:36 4,6 C 11,1 C 2,8 C 72 % 0 lf 1018,4 hPa 0,0 l/m 2 min 0 min 434 W/m 16,7 km/h (3 Bft) 93,62 %
17.02.2016 13:38 4,6 C 10,0 C 2,8 C 72 % 0 lf 1018,5 hPa 0,0 l/m 2 min 0 min 433 W/m 14,6 km/h (3 Bft) 95,74 %
17.02.2016 13:40 4,6 C 10,6 C 2,8 C 72 % 0 lf 1018,4 hPa 0,0 l/m 2 min 0 min 429 W/m 10,5 km/h (2 Bft) 95,74 %
17.02.2016 13:42 4,6 C 10,6 C 2,8 C 72 % 0 lf 1018,4 hPa 0,0 l/m 2 min 0 min 430 W/m 10,5 km/h (2 Bft) 95,74 %
17.02.2016 13:44 4,6 C 12,2 C 2,8 C 72 % 0 lf 1018,3 hPa 0,0 l/m 2 min 0 min 430 W/m 8,4 km/h (2 Bft) 91,49 %
17.02.2016 13:46 4,7 C 11,7 C 2,8 C 72 % 0 lf 1018,2 hPa 0,0 l/m 2 min 0 min 428 W/m 16,7 km/h (3 Bft) 89,13 %
17.02.2016 13:48 4,7 C 10,6 C 2,8 C 72 % 0 lf 1018,2 hPa 0,0 l/m 2 min 0 min 426 W/m 16,7 km/h (3 Bft) 95,74 %
17.02.2016 13:50 4,7 C 10,6 C 2,8 C 71 % 0 lf 1018,1 hPa 0,0 l/m 2 min 0 min 422 W/m 12,6 km/h (3 Bft) 95,74 %
17.02.2016 13:52 4,8 C 10,6 C 2,8 C 71 % 0 lf 1018,0 hPa 0,0 l/m 2 min 0 min 421 W/m 10,5 km/h (2 Bft) 95,74 %
17.02.2016 13:54 4,8 C 12,2 C 2,8 C 72 % 0 lf 1018,0 hPa 0,0 l/m 2 min 0 min 420 W/m 10,5 km/h (2 Bft) 95,74 %
17.02.2016 13:56 4,8 C 10,6 C 3,3 C 72 % 0 lf 1018,0 hPa 0,0 l/m 2 min 0 min 420 W/m 14,6 km/h (3 Bft) 93,62 %
17.02.2016 13:58 4,9 C 10,0 C 2,8 C 71 % 0 lf 1018,0 hPa 0,0 l/m 2 min 0 min 417 W/m 16,7 km/h (3 Bft) 93,48 %
17.02.2016 14:00 4,9 C 10,6 C 2,8 C 71 % 0 lf 1017,9 hPa 0,0 l/m 2 min 0 min 411 W/m 12,6 km/h (3 Bft) 91,49 %
17.02.2016 14:02 4,9 C 11,1 C 2,8 C 71 % 0 lf 1017,9 hPa 0,0 l/m 2 min 0 min 405 W/m 12,6 km/h (3 Bft) 91,49 %
17.02.2016 14:04 5,0 C 11,7 C 3,3 C 71 % 0 lf 1017,8 hPa 0,0 l/m 2 min 0 min 404 W/m 14,6 km/h (3 Bft) 95,74 %
17.02.2016 14:06 5,0 C 12,2 C 2,8 C 71 % 0 lf 1017,7 hPa 0,0 l/m 2 min 0 min 399 W/m 14,6 km/h (3 Bft) 93,62 %
17.02.2016 14:08 5,1 C 11,7 C 2,8 C 71 % 0 lf 1017,7 hPa 0,0 l/m 2 min 0 min 396 W/m 16,7 km/h (3 Bft) 97,83 %
17.02.2016 14:10 5,2 C 11,1 C 2,8 C 71 % 0 lf 1017,7 hPa 0,0 l/m 2 min 0 min 397 W/m 16,7 km/h (3 Bft) 97,87 %
17.02.2016 14:12 5,2 C 10,6 C 2,8 C 70 % 0 lf 1017,7 hPa 0,0 l/m 2 min 0 min 399 W/m 14,6 km/h (3 Bft) 97,87 %
17.02.2016 14:14 5,2 C 12,2 C 2,8 C 70 % 0 lf 1017,6 hPa 0,0 l/m 2 min 0 min 397 W/m 12,6 km/h (3 Bft) 97,87 %
17.02.2016 14:16 5,2 C 12,8 C 2,8 C 70 % 0 lf 1017,5 hPa 0,0 l/m 2 min 0 min 395 W/m 8,4 km/h (2 Bft) 91,49 %
17.02.2016 14:18 5,3 C 11,7 C 2,8 C 70 % 0 lf 1017,5 hPa 0,0 l/m 2 min 0 min 394 W/m 6,3 km/h (2 Bft) 97,87 %
17.02.2016 14:20 5,3 C 12,2 C 2,8 C 70 % 0 lf 1017,4 hPa 0,0 l/m 2 min 0 min 385 W/m 16,7 km/h (3 Bft) 97,83 %
17.02.2016 14:22 5,3 C 11,7 C 2,8 C 70 % 0 lf 1017,4 hPa 0,0 l/m 2 min 0 min 380 W/m 18,8 km/h (3 Bft) 97,87 %
17.02.2016 14:24 5,4 C 11,7 C 2,8 C 70 % 0 lf 1017,4 hPa 0,0 l/m 2 min 0 min 375 W/m 10,5 km/h (2 Bft) 97,87 %
17.02.2016 14:26 5,4 C 10,6 C 2,8 C 69 % 0 lf 1017,3 hPa 0,0 l/m 2 min 0 min 375 W/m 10,5 km/h (2 Bft) 97,87 %
17.02.2016 14:28 5,4 C 10,6 C 2,8 C 69 % 0 lf 1017,3 hPa 0,0 l/m 2 min 0 min 377 W/m 10,5 km/h (2 Bft) 95,74 %
17.02.2016 14:30 5,4 C 12,2 C 2,8 C 69 % 0 lf 1017,2 hPa 0,0 l/m 2 min 0 min 377 W/m 6,3 km/h (2 Bft) 93,62 %
17.02.2016 14:32 5,4 C 12,2 C 2,8 C 69 % 0 lf 1017,2 hPa 0,0 l/m 2 min 0 min 373 W/m 6,3 km/h (2 Bft) 95,65 %
17.02.2016 14:34 5,5 C 11,7 C 3,3 C 69 % 0 lf 1017,2 hPa 0,0 l/m 2 min 0 min 374 W/m 12,6 km/h (3 Bft) 95,74 %
17.02.2016 14:36 5,5 C 11,7 C 3,3 C 69 % 0 lf 1017,2 hPa 0,0 l/m 2 min 0 min 371 W/m 14,6 km/h (3 Bft) 93,62 %
17.02.2016 14:38 5,5 C 13,3 C 3,3 C 70 % 0 lf 1017,1 hPa 0,0 l/m 2 min 0 min 368 W/m 6,3 km/h (2 Bft) 95,74 %
17.02.2016 14:40 5,6 C 12,2 C 3,3 C 70 % 0 lf 1017,1 hPa 0,0 l/m 2 min 0 min 363 W/m 14,6 km/h (3 Bft) 95,74 %
17.02.2016 14:42 5,6 C 11,7 C 3,3 C 69 % 0 lf 1017,0 hPa 0,0 l/m 2 min 0 min 359 W/m 12,6 km/h (3 Bft) 93,62 %
17.02.2016 14:44 5,7 C 11,7 C 3,3 C 69 % 0 lf 1017,0 hPa 0,0 l/m 2 min 0 min 357 W/m 10,5 km/h (2 Bft) 93,48 %
17.02.2016 14:46 5,7 C 12,2 C 2,8 C 69 % 0 lf 1016,9 hPa 0,0 l/m 2 min 0 min 352 W/m 8,4 km/h (2 Bft) 93,62 %
17.02.2016 14:48 5,7 C 14,4 C 2,8 C 69 % 0 lf 1016,8 hPa 0,0 l/m 2 min 0 min 352 W/m 8,4 km/h (2 Bft) 91,49 %
17.02.2016 14:50 5,8 C 12,8 C 2,8 C 69 % 0 lf 1016,7 hPa 0,0 l/m 2 min 0 min 348 W/m 14,6 km/h (3 Bft) 95,74 %
17.02.2016 14:52 5,8 C 10,6 C 3,3 C 68 % 0 lf 1016,7 hPa 0,0 l/m 2 min 0 min 343 W/m 10,5 km/h (2 Bft) 95,74 %
17.02.2016 14:54 5,8 C 10,6 C 2,8 C 68 % 0 lf 1016,7 hPa 0,0 l/m 2 min 0 min 339 W/m 8,4 km/h (2 Bft) 93,62 %
17.02.2016 14:56 5,8 C 10,6 C 3,3 C 68 % 0 lf 1016,6 hPa 0,0 l/m 2 min 0 min 337 W/m 12,6 km/h (3 Bft) 93,48 %
17.02.2016 14:58 5,8 C 10,0 C 2,8 C 68 % 0 lf 1016,5 hPa 0,0 l/m 2 min 0 min 331 W/m 10,5 km/h (2 Bft) 95,74 %
17.02.2016 15:00 5,8 C 12,8 C 2,8 C 68 % 0 lf 1016,5 hPa 0,0 l/m 2 min 0 min 325 W/m 4,2 km/h (1 Bft) 95,74 %
17.02.2016 15:02 5,8 C 12,8 C 2,8 C 68 % 0 lf 1016,5 hPa 0,0 l/m 2 min 0 min 319 W/m 8,4 km/h (2 Bft) 95,74 %
17.02.2016 15:04 5,8 C 12,2 C 2,8 C 68 % 0 lf 1016,4 hPa 0,0 l/m 2 min 0 min 315 W/m 6,3 km/h (2 Bft) 95,74 %
17.02.2016 15:06 5,8 C 11,7 C 2,8 C 68 % 0 lf 1016,4 hPa 0,0 l/m 2 min 0 min 314 W/m 8,4 km/h (2 Bft) 97,83 %
17.02.2016 15:08 5,9 C 12,8 C 3,3 C 68 % 0 lf 1016,3 hPa 0,0 l/m 2 min 0 min 311 W/m 10,5 km/h (2 Bft) 97,87 %
17.02.2016 15:10 5,8 C 10,6 C 2,8 C 68 % 0 lf 1016,3 hPa 0,0 l/m 2 min 0 min 307 W/m 12,6 km/h (3 Bft) 95,74 %
17.02.2016 15:12 5,8 C 11,7 C 2,8 C 68 % 0 lf 1016,3 hPa 0,0 l/m 2 min 0 min 304 W/m 10,5 km/h (2 Bft) 91,49 %
17.02.2016 15:14 5,8 C 11,7 C 2,8 C 68 % 0 lf 1016,2 hPa 0,0 l/m 2 min 0 min 300 W/m 8,4 km/h (2 Bft) 97,87 %
17.02.2016 15:16 5,8 C 11,7 C 2,8 C 68 % 0 lf 1016,2 hPa 0,0 l/m 2 min 0 min 294 W/m 6,3 km/h (2 Bft) 97,87 %
17.02.2016 15:18 5,8 C 12,8 C 2,8 C 68 % 0 lf 1016,2 hPa 0,0 l/m 2 min 0 min 289 W/m 10,5 km/h (2 Bft) 95,65 %
17.02.2016 15:20 5,8 C 14,4 C 2,8 C 68 % 0 lf 1016,2 hPa 0,0 l/m 2 min 0 min 286 W/m 6,3 km/h (2 Bft) 95,74 %
17.02.2016 15:22 5,8 C 13,9 C 2,8 C 69 % 0 lf 1016,1 hPa 0,0 l/m 2 min 0 min 274 W/m 6,3 km/h (2 Bft) 95,74 %
17.02.2016 15:24 5,8 C 11,7 C 3,3 C 69 % 0 lf 1016,1 hPa 0,0 l/m 2 min 0 min 267 W/m 6,3 km/h (2 Bft) 97,87 %
17.02.2016 15:26 5,9 C 11,1 C 3,3 C 68 % 0 lf 1016,1 hPa 0,0 l/m 2 min 0 min 262 W/m 10,5 km/h (2 Bft) 95,74 %
17.02.2016 15:28 5,8 C 11,7 C 3,3 C 68 % 0 lf 1016,1 hPa 0,0 l/m 2 min 0 min 258 W/m 10,5 km/h (2 Bft) 95,74 %
17.02.2016 15:30 5,8 C 10,0 C 3,3 C 68 % 0 lf 1016,1 hPa 0,0 l/m 2 min 0 min 258 W/m 12,6 km/h (3 Bft) 95,65 %
17.02.2016 15:32 5,8 C 10,6 C 3,3 C 68 % 0 lf 1016,1 hPa 0,0 l/m 2 min 0 min 252 W/m 8,4 km/h (2 Bft) 95,74 %
17.02.2016 15:34 5,8 C 10,6 C 3,3 C 68 % 0 lf 1016,1 hPa 0,0 l/m 2 min 0 min 249 W/m 8,4 km/h (2 Bft) 97,87 %
17.02.2016 15:36 5,8 C 10,0 C 2,8 C 69 % 0 lf 1016,1 hPa 0,0 l/m 2 min 0 min 241 W/m 8,4 km/h (2 Bft) 95,74 %
17.02.2016 15:38 5,7 C 10,6 C 2,8 C 69 % 0 lf 1016,1 hPa 0,0 l/m 2 min 0 min 233 W/m 8,4 km/h (2 Bft) 97,87 %
17.02.2016 15:40 5,7 C 10,0 C 2,8 C 69 % 0 lf 1016,1 hPa 0,0 l/m 2 min 0 min 228 W/m 4,2 km/h (1 Bft) 97,87 %
17.02.2016 15:42 5,7 C 9,4 C 2,8 C 69 % 0 lf 1016,1 hPa 0,0 l/m 2 min 0 min 223 W/m 4,2 km/h (1 Bft) 95,65 %
17.02.2016 15:44 5,7 C 8,9 C 2,8 C 69 % 0 lf 1016,1 hPa 0,0 l/m 2 min 0 min 220 W/m 4,2 km/h (1 Bft) 97,87 %
17.02.2016 15:46 5,7 C 8,3 C 2,8 C 69 % 0 lf 1016,0 hPa 0,0 l/m 2 min 0 min 214 W/m 6,3 km/h (2 Bft) 97,87 %
17.02.2016 15:48 5,7 C 9,4 C 2,8 C 69 % 0 lf 1016,0 hPa 0,0 l/m 2 min 0 min 209 W/m 14,6 km/h (3 Bft) 95,74 %
17.02.2016 15:50 5,7 C 8,9 C 2,8 C 69 % 0 lf 1016,0 hPa 0,0 l/m 2 min 0 min 205 W/m 6,3 km/h (2 Bft) 97,87 %
17.02.2016 15:52 5,7 C 10,6 C 2,8 C 69 % 0 lf 1015,9 hPa 0,0 l/m 2 min 0 min 198 W/m 10,5 km/h (2 Bft) 93,62 %
17.02.2016 15:54 5,6 C 11,7 C 2,8 C 69 % 0 lf 1015,9 hPa 0,0 l/m 2 min 0 min 189 W/m 12,6 km/h (3 Bft) 93,48 %
17.02.2016 15:56 5,6 C 11,1 C 2,8 C 69 % 0 lf 1015,9 hPa 0,0 l/m 2 min 0 min 186 W/m 14,6 km/h (3 Bft) 95,74 %
17.02.2016 15:58 5,7 C 10,0 C 2,8 C 69 % 0 lf 1015,9 hPa 0,0 l/m 2 min 0 min 182 W/m 12,6 km/h (3 Bft) 95,74 %
17.02.2016 16:00 5,7 C 11,1 C 2,8 C 69 % 0 lf 1015,9 hPa 0,0 l/m 2 min 0 min 178 W/m 4,2 km/h (1 Bft) 95,74 %
17.02.2016 16:02 5,6 C 8,9 C 2,8 C 69 % 0 lf 1015,8 hPa 0,0 l/m 2 min 0 min 174 W/m 14,6 km/h (3 Bft) 91,49 %
17.02.2016 16:04 5,6 C 8,3 C 2,8 C 68 % 0 lf 1015,8 hPa 0,0 l/m 2 min 0 min 169 W/m 14,6 km/h (3 Bft) 95,74 %
17.02.2016 16:06 5,6 C 8,9 C 2,8 C 68 % 0 lf 1015,8 hPa 0,0 l/m 2 min 0 min 164 W/m 10,5 km/h (2 Bft) 95,65 %
17.02.2016 16:08 5,5 C 8,3 C 2,8 C 69 % 0 lf 1015,7 hPa 0,0 l/m 2 min 0 min 159 W/m 8,4 km/h (2 Bft) 93,62 %
17.02.2016 16:10 5,5 C 9,4 C 2,8 C 69 % 0 lf 1015,8 hPa 0,0 l/m 2 min 0 min 155 W/m 12,6 km/h (3 Bft) 89,36 %
17.02.2016 16:12 5,4 C 8,3 C 2,8 C 69 % 0 lf 1015,7 hPa 0,0 l/m 2 min 0 min 150 W/m 16,7 km/h (3 Bft) 95,74 %
17.02.2016 16:14 5,4 C 8,3 C 2,8 C 69 % 0 lf 1015,7 hPa 0,0 l/m 2 min 0 min 142 W/m 12,6 km/h (3 Bft) 95,74 %
17.02.2016 16:16 5,3 C 7,8 C 2,8 C 69 % 0 lf 1015,7 hPa 0,0 l/m 2 min 0 min 136 W/m 10,5 km/h (2 Bft) 95,74 %
17.02.2016 16:18 5,3 C 6,7 C 2,8 C 69 % 0 lf 1015,7 hPa 0,0 l/m 2 min 0 min 133 W/m 8,4 km/h (2 Bft) 93,48 %
17.02.2016 16:20 5,2 C 6,1 C 2,8 C 69 % 0 lf 1015,6 hPa 0,0 l/m 2 min 0 min 128 W/m 8,4 km/h (2 Bft) 93,62 %
17.02.2016 16:22 5,2 C 5,6 C 2,8 C 69 % 0 lf 1015,6 hPa 0,0 l/m 2 min 0 min 124 W/m 10,5 km/h (2 Bft) 91,49 %
17.02.2016 16:24 5,1 C 5,6 C 2,8 C 69 % 0 lf 1015,6 hPa 0,0 l/m 2 min 0 min 120 W/m 8,4 km/h (2 Bft) 93,62 %
17.02.2016 16:26 5,1 C 5,0 C 2,8 C 69 % 0 lf 1015,6 hPa 0,0 l/m 2 min 0 min 114 W/m 16,7 km/h (3 Bft) 95,74 %
17.02.2016 16:28 5,0 C 5,0 C 2,2 C 70 % 0 lf 1015,6 hPa 0,0 l/m 2 min 0 min 110 W/m 8,4 km/h (2 Bft) 95,65 %
17.02.2016 16:30 4,9 C 5,0 C 2,2 C 70 % 0 lf 1015,5 hPa 0,0 l/m 2 min 0 min 105 W/m 8,4 km/h (2 Bft) 91,49 %
17.02.2016 16:32 4,9 C 5,0 C 2,2 C 70 % 0 lf 1015,6 hPa 0,0 l/m 2 min 0 min 99 W/m 6,3 km/h (2 Bft) 95,74 %
17.02.2016 16:34 4,9 C 5,0 C 2,2 C 70 % 0 lf 1015,5 hPa 0,0 l/m 2 min 0 min 95 W/m 8,4 km/h (2 Bft) 95,74 %
17.02.2016 16:36 4,8 C 5,0 C 2,2 C 70 % 0 lf 1015,4 hPa 0,0 l/m 2 min 0 min 91 W/m 6,3 km/h (2 Bft) 91,49 %
17.02.2016 16:38 4,8 C 5,0 C 2,2 C 70 % 0 lf 1015,5 hPa 0,0 l/m 2 min 0 min 85 W/m 8,4 km/h (2 Bft) 93,62 %
17.02.2016 16:40 4,8 C 5,0 C 2,2 C 70 % 0 lf 1015,4 hPa 0,0 l/m 2 min 0 min 81 W/m 6,3 km/h (2 Bft) 95,92 %
17.02.2016 16:42 4,7 C 4,4 C 2,2 C 71 % 0 lf 1015,4 hPa 0,0 l/m 2 min 0 min 77 W/m 4,2 km/h (1 Bft) 97,87 %
17.02.2016 16:44 4,7 C 4,4 C 2,2 C 71 % 0 lf 1015,4 hPa 0,0 l/m 2 min 0 min 74 W/m 8,4 km/h (2 Bft) 97,87 %
17.02.2016 16:46 4,7 C 4,4 C 2,2 C 71 % 0 lf 1015,4 hPa 0,0 l/m 2 min 0 min 70 W/m 12,6 km/h (3 Bft) 93,62 %
17.02.2016 16:48 4,6 C 4,4 C 2,2 C 71 % 0 lf 1015,4 hPa 0,0 l/m 2 min 0 min 66 W/m 12,6 km/h (3 Bft) 97,87 %
17.02.2016 16:50 4,5 C 4,4 C 2,2 C 71 % 0 lf 1015,4 hPa 0,0 l/m 2 min 0 min 62 W/m 6,3 km/h (2 Bft) 95,74 %
17.02.2016 16:52 4,5 C 4,4 C 2,2 C 71 % 0 lf 1015,3 hPa 0,0 l/m 2 min 0 min 58 W/m 8,4 km/h (2 Bft) 91,30 %
17.02.2016 16:54 4,4 C 4,4 C 2,2 C 71 % 0 lf 1015,3 hPa 0,0 l/m 0 min 0 min 54 W/m 10,5 km/h (2 Bft) 91,49 %
17.02.2016 16:56 4,4 C 4,4 C 2,2 C 71 % 0 lf 1015,3 hPa 0,0 l/m 0 min 0 min 51 W/m 6,3 km/h (2 Bft) 97,87 %
17.02.2016 16:58 4,4 C 4,4 C 1,7 C 71 % 0 lf 1015,2 hPa 0,0 l/m 0 min 0 min 48 W/m 6,3 km/h (2 Bft) 93,88 %
17.02.2016 17:00 4,3 C 4,4 C 1,7 C 71 % 0 lf 1015,3 hPa 0,0 l/m 0 min 0 min 45 W/m 10,5 km/h (2 Bft) 97,87 %
17.02.2016 17:02 4,3 C 4,4 C 1,7 C 71 % 0 lf 1015,3 hPa 0,0 l/m 0 min 0 min 43 W/m 6,3 km/h (2 Bft) 97,14 %
17.02.2016 17:04 4,3 C 4,4 C 1,7 C 72 % 0 lf 1015,3 hPa 0,0 l/m 0 min 0 min 40 W/m 8,4 km/h (2 Bft) 96,15 %
17.02.2016 17:06 4,2 C 3,9 C 1,7 C 72 % 0 lf 1015,3 hPa 0,0 l/m 0 min 0 min 38 W/m 8,4 km/h (2 Bft) 97,87 %
17.02.2016 17:08 4,2 C 3,9 C 1,7 C 72 % 0 lf 1015,3 hPa 0,0 l/m 0 min 0 min 36 W/m 6,3 km/h (2 Bft) 97,87 %
17.02.2016 17:10 4,2 C 3,9 C 1,7 C 72 % 0 lf 1015,2 hPa 0,0 l/m 0 min 0 min 33 W/m 8,4 km/h (2 Bft) 95,74 %
17.02.2016 17:12 4,2 C 3,9 C 1,7 C 72 % 0 lf 1015,2 hPa 0,0 l/m 0 min 0 min 32 W/m 6,3 km/h (2 Bft) 97,87 %
17.02.2016 17:14 4,1 C 3,9 C 1,7 C 72 % 0 lf 1015,2 hPa 0,0 l/m 0 min 0 min 31 W/m 6,3 km/h (2 Bft) 97,87 %
17.02.2016 17:16 4,1 C 3,9 C 1,7 C 72 % 0 lf 1015,1 hPa 0,0 l/m 0 min 0 min 29 W/m 4,2 km/h (1 Bft) 95,65 %
17.02.2016 17:18 4,1 C 3,9 C 1,1 C 72 % 0 lf 1015,1 hPa 0,0 l/m 0 min 0 min 28 W/m 4,2 km/h (1 Bft) 93,62 %
17.02.2016 17:20 4,0 C 3,9 C 1,1 C 72 % 0 lf 1015,1 hPa 0,0 l/m 0 min 0 min 27 W/m 4,2 km/h (1 Bft) 95,74 %
17.02.2016 17:22 4,0 C 3,9 C 1,1 C 73 % 0 lf 1015,1 hPa 0,0 l/m 0 min 0 min 26 W/m 4,2 km/h (1 Bft) 97,87 %
17.02.2016 17:24 4,0 C 3,3 C 0,6 C 73 % 0 lf 1015,1 hPa 0,0 l/m 2 min 0 min 25 W/m 6,3 km/h (2 Bft) 95,74 %
17.02.2016 17:26 3,9 C 3,3 C 0,6 C 73 % 0 lf 1015,1 hPa 0,0 l/m 2 min 0 min 23 W/m 4,2 km/h (1 Bft) 91,49 %
17.02.2016 17:28 3,9 C 3,3 C 0,6 C 73 % 0 lf 1015,1 hPa 0,0 l/m 2 min 0 min 21 W/m 4,2 km/h (1 Bft) 97,83 %
17.02.2016 17:30 3,9 C 3,3 C 0,6 C 73 % 0 lf 1015,0 hPa 0,0 l/m 2 min 0 min 20 W/m 4,2 km/h (1 Bft) 97,87 %
17.02.2016 17:32 3,8 C 3,3 C 0,0 C 73 % 0 lf 1015,1 hPa 0,0 l/m 2 min 0 min 19 W/m 4,2 km/h (1 Bft) 93,62 %
17.02.2016 17:34 3,8 C 2,8 C 0,0 C 73 % 0 lf 1015,1 hPa 0,0 l/m 0 min 0 min 18 W/m 4,2 km/h (1 Bft) 97,87 %
17.02.2016 17:36 3,8 C 2,8 C 0,0 C 73 % 0 lf 1015,1 hPa 0,0 l/m 0 min 0 min 17 W/m 6,3 km/h (2 Bft) 97,87 %
17.02.2016 17:38 3,8 C 2,8 C 0,0 C 73 % 0 lf 1015,1 hPa 0,0 l/m 0 min 0 min 16 W/m 4,2 km/h (1 Bft) 97,87 %
17.02.2016 17:40 3,7 C 2,8 C 0,0 C 73 % 0 lf 1015,1 hPa 0,0 l/m 0 min 0 min 16 W/m 4,2 km/h (1 Bft) 100,00 %
17.02.2016 17:42 3,7 C 2,8 C -0,6 C 73 % 0 lf 1015,1 hPa 0,0 l/m 0 min 0 min 14 W/m 4,2 km/h (1 Bft) 97,87 %
17.02.2016 17:44 3,7 C 2,8 C -0,6 C 73 % 0 lf 1015,1 hPa 0,0 l/m 0 min 0 min 13 W/m 4,2 km/h (1 Bft) 97,87 %
17.02.2016 17:46 3,7 C 2,8 C -0,6 C 74 % 0 lf 1015,0 hPa 0,0 l/m 0 min 0 min 12 W/m 2,1 km/h (1 Bft) 100,00 %
17.02.2016 17:48 3,6 C 2,2 C -0,6 C 73 % 0 lf 1015,1 hPa 0,0 l/m 0 min 0 min 9 W/m 0,0 km/h (0 Bft) 100,00 %
17.02.2016 17:50 3,6 C 2,2 C -0,6 C 73 % 0 lf 1015,0 hPa 0,0 l/m 0 min 0 min 8 W/m 0,0 km/h (0 Bft) 100,00 %
17.02.2016 17:52 3,4 C 1,7 C -0,6 C 73 % 0 lf 1015,1 hPa 0,0 l/m 0 min 0 min 7 W/m 0,0 km/h (0 Bft) 97,87 %
17.02.2016 17:54 3,4 C 1,7 C -1,1 C 73 % 0 lf 1015,1 hPa 0,0 l/m 0 min 0 min 5 W/m 0,0 km/h (0 Bft) 97,87 %
17.02.2016 17:56 3,3 C 1,1 C -1,1 C 73 % 0 lf 1015,0 hPa 0,0 l/m 0 min 0 min 5 W/m 0,0 km/h (0 Bft) 95,74 %
17.02.2016 17:58 3,3 C 1,1 C -1,1 C 73 % 0 lf 1015,1 hPa 0,0 l/m 0 min 0 min 3 W/m 0,0 km/h (0 Bft) 100,00 %
17.02.2016 18:00 3,2 C 1,1 C -1,1 C 73 % 0 lf 1015,0 hPa 0,0 l/m 0 min 0 min 0 W/m 0,0 km/h (0 Bft) 97,87 %
17.02.2016 18:02 3,2 C 1,1 C -1,1 C 74 % 0 lf 1015,1 hPa 0,0 l/m 0 min 0 min 0 W/m 0,0 km/h (0 Bft) 97,83 %
17.02.2016 18:04 3,1 C 1,1 C -1,1 C 74 % 0 lf 1015,1 hPa 0,0 l/m 0 min 0 min 0 W/m 0,0 km/h (0 Bft) 100,00 %
17.02.2016 18:06 3,0 C 1,1 C -1,1 C 74 % 0 lf 1015,0 hPa 0,0 l/m 0 min 0 min 0 W/m 0,0 km/h (0 Bft) 100,00 %
17.02.2016 18:08 2,9 C 1,1 C -1,1 C 74 % 0 lf 1015,0 hPa 0,0 l/m 0 min 0 min 0 W/m 0,0 km/h (0 Bft) 100,00 %
17.02.2016 18:10 2,9 C 1,1 C -1,1 C 74 % 0 lf 1015,0 hPa 0,0 l/m 0 min 0 min 0 W/m 0,0 km/h (0 Bft) 100,00 %
17.02.2016 18:12 2,8 C 1,1 C -1,1 C 75 % 0 lf 1015,0 hPa 0,0 l/m 0 min 0 min 0 W/m 0,0 km/h (0 Bft) 97,87 %
17.02.2016 18:14 2,7 C 1,1 C -1,1 C 75 % 0 lf 1015,0 hPa 0,0 l/m 0 min 0 min 0 W/m 0,0 km/h (0 Bft) 95,65 %
17.02.2016 18:16 2,7 C 1,1 C -1,1 C 75 % 0 lf 1014,9 hPa 0,0 l/m 0 min 0 min 0 W/m 0,0 km/h (0 Bft) 95,74 %
17.02.2016 18:18 2,6 C 0,6 C -1,1 C 75 % 0 lf 1015,0 hPa 0,0 l/m 0 min 0 min 0 W/m 0,0 km/h (0 Bft) 97,87 %
17.02.2016 18:20 2,6 C 0,6 C -1,1 C 75 % 0 lf 1015,0 hPa 0,0 l/m 0 min 0 min 0 W/m 0,0 km/h (0 Bft) 97,87 %
17.02.2016 18:22 2,5 C 0,6 C -1,7 C 76 % 0 lf 1014,9 hPa 0,0 l/m 0 min 0 min 0 W/m 0,0 km/h (0 Bft) 91,49 %
17.02.2016 18:24 2,4 C 0,6 C -1,7 C 76 % 0 lf 1015,0 hPa 0,0 l/m 0 min 0 min 0 W/m 0,0 km/h (0 Bft) 97,87 %
17.02.2016 18:26 2,4 C 0,6 C -1,7 C 76 % 0 lf 1015,0 hPa 0,0 l/m 0 min 0 min 0 W/m 0,0 km/h (0 Bft) 97,83 %
17.02.2016 18:28 2,3 C 0,6 C -1,7 C 76 % 0 lf 1015,0 hPa 0,0 l/m 0 min 0 min 0 W/m 0,0 km/h (0 Bft) 95,74 %
17.02.2016 18:30 2,3 C 0,6 C -1,7 C 76 % 0 lf 1014,9 hPa 0,0 l/m 0 min 0 min 0 W/m 0,0 km/h (0 Bft) 91,49 %
17.02.2016 18:32 2,2 C 0,6 C -1,7 C 76 % 0 lf 1014,9 hPa 0,0 l/m 0 min 0 min 0 W/m 0,0 km/h (0 Bft) 95,74 %
17.02.2016 18:34 2,2 C 0,6 C -1,7 C 76 % 0 lf 1015,0 hPa 0,0 l/m 0 min 0 min 0 W/m 0,0 km/h (0 Bft) 97,87 %
17.02.2016 18:36 2,1 C 0,6 C -1,1 C 76 % 0 lf 1015,0 hPa 0,0 l/m 0 min 0 min 0 W/m 0,0 km/h (0 Bft) 91,49 %
17.02.2016 18:38 2,1 C 0,6 C -1,1 C 77 % 0 lf 1014,9 hPa 0,0 l/m 0 min 0 min 0 W/m 0,0 km/h (0 Bft) 95,65 %
17.02.2016 18:40 2,0 C 0,6 C -1,1 C 77 % 0 lf 1014,9 hPa 0,0 l/m 0 min 0 min 0 W/m 0,0 km/h (0 Bft) 91,49 %
17.02.2016 18:42 1,9 C 0,6 C -1,1 C 77 % 0 lf 1014,9 hPa 0,0 l/m 0 min 0 min 0 W/m 0,0 km/h (0 Bft) 93,62 %
17.02.2016 18:44 1,9 C 0,6 C -1,1 C 77 % 0 lf 1014,9 hPa 0,0 l/m 0 min 0 min 0 W/m 0,0 km/h (0 Bft) 95,74 %
17.02.2016 18:46 1,9 C 0,6 C -1,1 C 77 % 0 lf 1014,9 hPa 0,0 l/m 0 min 0 min 0 W/m 0,0 km/h (0 Bft) 95,74 %
17.02.2016 18:48 1,8 C 0,6 C -1,1 C 77 % 0 lf 1014,8 hPa 0,0 l/m 0 min 0 min 0 W/m 0,0 km/h (0 Bft) 95,74 %
17.02.2016 18:50 1,8 C 0,6 C -1,1 C 77 % 0 lf 1014,9 hPa 0,0 l/m 0 min 0 min 0 W/m 0,0 km/h (0 Bft) 95,65 %
17.02.2016 18:52 1,7 C 0,6 C -1,1 C 77 % 0 lf 1014,8 hPa 0,0 l/m 0 min 0 min 0 W/m 0,0 km/h (0 Bft) 93,62 %
17.02.2016 18:54 1,7 C 0,6 C -1,1 C 77 % 0 lf 1014,8 hPa 0,0 l/m 0 min 0 min 0 W/m 0,0 km/h (0 Bft) 91,49 %
17.02.2016 18:56 1,7 C 0,6 C -1,1 C 78 % 0 lf 1014,8 hPa 0,0 l/m 0 min 0 min 0 W/m 0,0 km/h (0 Bft) 93,62 %
17.02.2016 18:58 1,7 C 0,6 C -1,1 C 78 % 0 lf 1014,8 hPa 0,0 l/m 0 min 0 min 0 W/m 0,0 km/h (0 Bft) 91,49 %
17.02.2016 19:00 1,6 C 0,6 C -1,1 C 78 % 0 lf 1014,8 hPa 0,0 l/m 0 min 0 min 0 W/m 4,2 km/h (1 Bft) 93,48 %
17.02.2016 19:02 1,6 C 1,1 C -0,6 C 78 % 0 lf 1014,8 hPa 0,0 l/m 0 min 0 min 0 W/m 4,2 km/h (1 Bft) 91,49 %
17.02.2016 19:04 1,6 C 1,1 C -0,6 C 78 % 0 lf 1014,8 hPa 0,0 l/m 0 min 0 min 0 W/m 2,1 km/h (1 Bft) 93,62 %
17.02.2016 19:06 1,5 C 1,1 C -0,6 C 79 % 0 lf 1014,7 hPa 0,0 l/m 0 min 0 min 0 W/m 2,1 km/h (1 Bft) 91,49 %
17.02.2016 19:08 1,5 C 1,1 C -0,6 C 79 % 0 lf 1014,8 hPa 0,0 l/m 0 min 0 min 0 W/m 2,1 km/h (1 Bft) 93,62 %
17.02.2016 19:10 1,4 C 1,1 C -0,6 C 79 % 0 lf 1014,8 hPa 0,0 l/m 0 min 0 min 0 W/m 4,2 km/h (1 Bft) 95,74 %
17.02.2016 19:12 1,4 C 1,1 C -0,6 C 79 % 0 lf 1014,7 hPa 0,0 l/m 0 min 0 min 0 W/m 4,2 km/h (1 Bft) 91,30 %
17.02.2016 19:14 1,4 C 1,1 C -0,6 C 79 % 0 lf 1014,8 hPa 0,0 l/m 0 min 0 min 0 W/m 0,0 km/h (0 Bft) 95,74 %
17.02.2016 19:16 1,4 C 1,1 C -0,6 C 80 % 0 lf 1014,7 hPa 0,0 l/m 0 min 0 min 0 W/m 0,0 km/h (0 Bft) 95,74 %
17.02.2016 19:18 1,4 C 1,1 C -0,6 C 80 % 0 lf 1014,7 hPa 0,0 l/m 0 min 0 min 0 W/m 0,0 km/h (0 Bft) 100,00 %
17.02.2016 19:20 1,4 C 1,1 C -0,6 C 80 % 0 lf 1014,7 hPa 0,0 l/m 0 min 0 min 0 W/m 0,0 km/h (0 Bft) 95,74 %
17.02.2016 19:22 1,4 C 1,1 C -0,6 C 80 % 0 lf 1014,7 hPa 0,0 l/m 0 min 0 min 0 W/m 0,0 km/h (0 Bft) 100,00 %
17.02.2016 19:24 1,4 C 1,7 C 0,0 C 81 % 0 lf 1014,6 hPa 0,0 l/m 0 min 0 min 0 W/m 2,1 km/h (1 Bft) 95,65 %
17.02.2016 19:26 1,4 C 1,7 C 0,0 C 81 % 0 lf 1014,6 hPa 0,0 l/m 0 min 0 min 0 W/m 2,1 km/h (1 Bft) 97,87 %
17.02.2016 19:28 1,4 C 1,7 C 0,0 C 81 % 0 lf 1014,5 hPa 0,0 l/m 0 min 0 min 0 W/m 2,1 km/h (1 Bft) 97,87 %
17.02.2016 19:30 1,4 C 1,7 C 0,0 C 81 % 0 lf 1014,6 hPa 0,0 l/m 0 min 0 min 0 W/m 2,1 km/h (1 Bft) 95,74 %
17.02.2016 19:32 1,4 C 1,7 C 0,0 C 82 % 0 lf 1014,6 hPa 0,0 l/m 0 min 0 min 0 W/m 2,1 km/h (1 Bft) 97,87 %
17.02.2016 19:34 1,4 C 1,7 C 0,0 C 82 % 0 lf 1014,6 hPa 0,0 l/m 0 min 0 min 0 W/m 4,2 km/h (1 Bft) 100,00 %
17.02.2016 19:36 1,4 C 1,7 C 0,0 C 82 % 0 lf 1014,6 hPa 0,0 l/m 0 min 0 min 0 W/m 4,2 km/h (1 Bft) 100,00 %
17.02.2016 19:38 1,4 C 1,7 C 0,0 C 82 % 0 lf 1014,5 hPa 0,0 l/m 0 min 0 min 0 W/m 0,0 km/h (0 Bft) 97,87 %
17.02.2016 19:40 1,4 C 1,7 C 0,0 C 82 % 0 lf 1014,6 hPa 0,0 l/m 0 min 0 min 0 W/m 0,0 km/h (0 Bft) 97,87 %
17.02.2016 19:42 1,4 C 1,7 C 0,0 C 82 % 0 lf 1014,6 hPa 0,0 l/m 0 min 0 min 0 W/m 0,0 km/h (0 Bft) 95,74 %
17.02.2016 19:44 1,4 C 1,7 C 0,0 C 83 % 0 lf 1014,6 hPa 0,0 l/m 0 min 0 min 0 W/m 0,0 km/h (0 Bft) 97,87 %
17.02.2016 19:46 1,4 C 1,7 C 0,0 C 83 % 0 lf 1014,5 hPa 0,0 l/m 0 min 0 min 0 W/m 0,0 km/h (0 Bft) 100,00 %
17.02.2016 19:48 1,4 C 1,7 C 0,0 C 83 % 0 lf 1014,5 hPa 0,0 l/m 0 min 0 min 0 W/m 0,0 km/h (0 Bft) 100,00 %
17.02.2016 19:50 1,4 C 1,7 C 0,0 C 83 % 0 lf 1014,5 hPa 0,0 l/m 0 min 0 min 0 W/m 0,0 km/h (0 Bft) 100,00 %
17.02.2016 19:52 1,4 C 1,7 C 0,0 C 83 % 0 lf 1014,5 hPa 0,0 l/m 0 min 0 min 0 W/m 0,0 km/h (0 Bft) 97,87 %
17.02.2016 19:54 1,4 C 1,7 C 0,0 C 84 % 0 lf 1014,4 hPa 0,0 l/m 0 min 0 min 0 W/m 0,0 km/h (0 Bft) 97,87 %
17.02.2016 19:56 1,4 C 1,7 C 0,0 C 84 % 0 lf 1014,5 hPa 0,0 l/m 0 min 0 min 0 W/m 0,0 km/h (0 Bft) 100,00 %
17.02.2016 19:58 1,4 C 1,7 C 0,0 C 84 % 0 lf 1014,5 hPa 0,0 l/m 0 min 0 min 0 W/m 4,2 km/h (1 Bft) 100,00 %
17.02.2016 20:00 1,4 C 1,7 C 0,0 C 84 % 0 lf 1014,4 hPa 0,0 l/m 0 min 0 min 0 W/m 6,3 km/h (2 Bft) 97,83 %
17.02.2016 20:02 1,4 C 1,7 C 0,0 C 84 % 0 lf 1014,4 hPa 0,0 l/m 0 min 0 min 0 W/m 4,2 km/h (1 Bft) 100,00 %
17.02.2016 20:04 1,4 C 1,7 C 0,0 C 84 % 0 lf 1014,4 hPa 0,0 l/m 0 min 0 min 0 W/m 4,2 km/h (1 Bft) 95,74 %
17.02.2016 20:06 1,4 C 1,7 C 0,0 C 84 % 0 lf 1014,4 hPa 0,0 l/m 0 min 0 min 0 W/m 4,2 km/h (1 Bft) 100,00 %
17.02.2016 20:08 1,4 C 1,7 C 0,0 C 84 % 0 lf 1014,4 hPa 0,0 l/m 0 min 0 min 0 W/m 0,0 km/h (0 Bft) 100,00 %
17.02.2016 20:10 1,4 C 1,7 C 0,0 C 84 % 0 lf 1014,4 hPa 0,0 l/m 0 min 0 min 0 W/m 2,1 km/h (1 Bft) 97,83 %
17.02.2016 20:12 1,4 C 1,7 C 0,0 C 84 % 0 lf 1014,4 hPa 0,0 l/m 0 min 0 min 0 W/m 0,0 km/h (0 Bft) 100,00 %
17.02.2016 20:14 1,4 C 1,7 C 0,0 C 84 % 0 lf 1014,4 hPa 0,0 l/m 0 min 0 min 0 W/m 0,0 km/h (0 Bft) 100,00 %
17.02.2016 20:16 1,4 C 1,7 C 0,0 C 84 % 0 lf 1014,3 hPa 0,0 l/m 0 min 0 min 0 W/m 0,0 km/h (0 Bft) 100,00 %
17.02.2016 20:18 1,5 C 1,7 C 0,0 C 84 % 0 lf 1014,3 hPa 0,0 l/m 0 min 0 min 0 W/m 0,0 km/h (0 Bft) 100,00 %
17.02.2016 20:20 1,4 C 1,7 C 0,0 C 84 % 0 lf 1014,2 hPa 0,0 l/m 0 min 0 min 0 W/m 0,0 km/h (0 Bft) 95,74 %
17.02.2016 20:22 1,4 C 1,7 C 0,0 C 85 % 0 lf 1014,3 hPa 0,0 l/m 0 min 0 min 0 W/m 0,0 km/h (0 Bft) 95,65 %
17.02.2016 20:24 1,4 C 1,7 C 0,0 C 85 % 0 lf 1014,2 hPa 0,0 l/m 0 min 0 min 0 W/m 0,0 km/h (0 Bft) 95,74 %
17.02.2016 20:26 1,4 C 1,7 C 0,0 C 85 % 0 lf 1014,2 hPa 0,0 l/m 0 min 0 min 0 W/m 0,0 km/h (0 Bft) 95,74 %
17.02.2016 20:28 1,4 C 1,7 C 0,0 C 85 % 0 lf 1014,2 hPa 0,0 l/m 0 min 0 min 0 W/m 0,0 km/h (0 Bft) 97,87 %
17.02.2016 20:30 1,5 C 1,7 C 0,0 C 85 % 0 lf 1014,2 hPa 0,0 l/m 0 min 0 min 0 W/m 0,0 km/h (0 Bft) 91,49 %
17.02.2016 20:32 1,5 C 1,7 C 0,0 C 85 % 0 lf 1014,2 hPa 0,0 l/m 0 min 0 min 0 W/m 0,0 km/h (0 Bft) 95,74 %
17.02.2016 20:34 1,5 C 1,7 C 0,0 C 85 % 0 lf 1014,2 hPa 0,0 l/m 0 min 0 min 0 W/m 0,0 km/h (0 Bft) 97,83 %
17.02.2016 20:36 1,4 C 1,7 C 0,0 C 85 % 0 lf 1014,2 hPa 0,0 l/m 0 min 0 min 0 W/m 0,0 km/h (0 Bft) 95,74 %
17.02.2016 20:38 1,5 C 1,7 C 0,0 C 85 % 0 lf 1014,2 hPa 0,0 l/m 0 min 0 min 0 W/m 0,0 km/h (0 Bft) 97,87 %
17.02.2016 20:40 1,5 C 1,7 C 0,0 C 85 % 0 lf 1014,1 hPa 0,0 l/m 0 min 0 min 0 W/m 0,0 km/h (0 Bft) 93,62 %
17.02.2016 20:42 1,5 C 1,7 C 0,0 C 85 % 0 lf 1014,1 hPa 0,0 l/m 0 min 0 min 0 W/m 0,0 km/h (0 Bft) 95,74 %
17.02.2016 20:44 1,5 C 1,7 C 0,0 C 85 % 0 lf 1014,1 hPa 0,0 l/m 0 min 0 min 0 W/m 0,0 km/h (0 Bft) 95,74 %
17.02.2016 20:46 1,5 C 1,7 C 0,0 C 85 % 0 lf 1014,0 hPa 0,0 l/m 0 min 0 min 0 W/m 0,0 km/h (0 Bft) 91,30 %
17.02.2016 20:48 1,5 C 1,7 C 0,0 C 85 % 0 lf 1014,0 hPa 0,0 l/m 0 min 0 min 0 W/m 4,2 km/h (1 Bft) 93,62 %
17.02.2016 20:50 1,5 C 1,7 C 0,0 C 85 % 0 lf 1014,0 hPa 0,0 l/m 0 min 0 min 0 W/m 2,1 km/h (1 Bft) 91,49 %
17.02.2016 20:52 1,5 C 1,7 C 0,0 C 85 % 0 lf 1014,1 hPa 0,0 l/m 0 min 0 min 0 W/m 0,0 km/h (0 Bft) 91,49 %
17.02.2016 20:54 1,5 C 1,7 C 0,0 C 85 % 0 lf 1014,0 hPa 0,0 l/m 0 min 0 min 0 W/m 2,1 km/h (1 Bft) 91,49 %
17.02.2016 20:56 1,5 C 1,7 C 0,0 C 85 % 0 lf 1014,0 hPa 0,0 l/m 0 min 0 min 0 W/m 0,0 km/h (0 Bft) 91,49 %
17.02.2016 20:58 1,6 C 1,7 C 0,0 C 85 % 0 lf 1014,0 hPa 0,0 l/m 0 min 0 min 0 W/m 0,0 km/h (0 Bft) 93,48 %
17.02.2016 21:00 1,6 C 1,7 C 0,0 C 85 % 0 lf 1014,0 hPa 0,0 l/m 0 min 0 min 0 W/m 0,0 km/h (0 Bft) 93,62 %
17.02.2016 21:02 1,6 C 1,7 C 0,0 C 86 % 0 lf 1014,0 hPa 0,0 l/m 0 min 0 min 0 W/m 4,2 km/h (1 Bft) 91,49 %
17.02.2016 21:04 1,6 C 1,7 C 0,0 C 86 % 0 lf 1014,0 hPa 0,0 l/m 0 min 0 min 0 W/m 4,2 km/h (1 Bft) 93,62 %
17.02.2016 21:06 1,6 C 1,7 C 0,0 C 86 % 0 lf 1014,0 hPa 0,0 l/m 0 min 0 min 0 W/m 4,2 km/h (1 Bft) 91,49 %
17.02.2016 21:08 1,6 C 1,7 C 0,0 C 86 % 0 lf 1014,1 hPa 0,0 l/m 0 min 0 min 0 W/m 0,0 km/h (0 Bft) 91,30 %
17.02.2016 21:10 1,6 C 1,7 C 0,0 C 86 % 0 lf 1014,0 hPa 0,0 l/m 0 min 0 min 0 W/m 4,2 km/h (1 Bft) 93,62 %
17.02.2016 21:12 1,6 C 1,7 C 0,0 C 86 % 0 lf 1014,0 hPa 0,0 l/m 0 min 0 min 0 W/m 4,2 km/h (1 Bft) 95,74 %
17.02.2016 21:14 1,6 C 1,7 C 0,6 C 86 % 0 lf 1014,0 hPa 0,0 l/m 0 min 0 min 0 W/m 6,3 km/h (2 Bft) 93,62 %
17.02.2016 21:16 1,6 C 1,7 C 0,6 C 86 % 0 lf 1014,0 hPa 0,0 l/m 0 min 0 min 0 W/m 8,4 km/h (2 Bft) 95,74 %
17.02.2016 21:18 1,6 C 1,7 C 0,6 C 86 % 0 lf 1014,0 hPa 0,0 l/m 0 min 0 min 0 W/m 8,4 km/h (2 Bft) 87,23 %
17.02.2016 21:20 1,6 C 1,7 C 0,6 C 86 % 0 lf 1013,9 hPa 0,0 l/m 0 min 0 min 0 W/m 4,2 km/h (1 Bft) 93,48 %
17.02.2016 21:22 1,6 C 1,7 C 0,6 C 86 % 0 lf 1013,9 hPa 0,0 l/m 0 min 0 min 0 W/m 4,2 km/h (1 Bft) 93,62 %
17.02.2016 21:24 1,6 C 1,7 C 0,6 C 86 % 0 lf 1013,9 hPa 0,0 l/m 0 min 0 min 0 W/m 2,1 km/h (1 Bft) 93,62 %
17.02.2016 21:26 1,6 C 1,7 C 0,0 C 86 % 0 lf 1013,9 hPa 0,0 l/m 0 min 0 min 0 W/m 2,1 km/h (1 Bft) 91,49 %
17.02.2016 21:28 1,6 C 1,7 C 0,0 C 86 % 0 lf 1013,9 hPa 0,0 l/m 0 min 0 min 0 W/m 0,0 km/h (0 Bft) 93,62 %
17.02.2016 21:30 1,6 C 1,7 C 0,0 C 86 % 0 lf 1013,8 hPa 0,0 l/m 0 min 0 min 0 W/m 2,1 km/h (1 Bft) 91,49 %
17.02.2016 21:32 1,6 C 1,7 C 0,0 C 86 % 0 lf 1013,8 hPa 0,0 l/m 0 min 0 min 0 W/m 0,0 km/h (0 Bft) 93,48 %
17.02.2016 21:34 1,6 C 1,7 C 0,0 C 86 % 0 lf 1013,7 hPa 0,0 l/m 0 min 0 min 0 W/m 4,2 km/h (1 Bft) 91,49 %
17.02.2016 21:36 1,6 C 1,7 C 0,0 C 86 % 0 lf 1013,7 hPa 0,0 l/m 0 min 0 min 0 W/m 2,1 km/h (1 Bft) 95,74 %
17.02.2016 21:38 1,6 C 1,7 C 0,0 C 86 % 0 lf 1013,6 hPa 0,0 l/m 0 min 0 min 0 W/m 2,1 km/h (1 Bft) 93,62 %
17.02.2016 21:40 1,6 C 1,7 C 0,0 C 86 % 0 lf 1013,7 hPa 0,0 l/m 0 min 0 min 0 W/m 0,0 km/h (0 Bft) 93,62 %
17.02.2016 21:42 1,6 C 1,7 C 0,0 C 86 % 0 lf 1013,7 hPa 0,0 l/m 0 min 0 min 0 W/m 2,1 km/h (1 Bft) 93,62 %
17.02.2016 21:44 1,6 C 1,7 C 0,0 C 86 % 0 lf 1013,7 hPa 0,0 l/m 0 min 0 min 0 W/m 0,0 km/h (0 Bft) 95,65 %
17.02.2016 21:46 1,6 C 1,7 C 0,0 C 86 % 0 lf 1013,7 hPa 0,0 l/m 0 min 0 min 0 W/m 0,0 km/h (0 Bft) 95,74 %
17.02.2016 21:48 1,6 C 1,7 C 0,0 C 86 % 0 lf 1013,7 hPa 0,0 l/m 0 min 0 min 0 W/m 0,0 km/h (0 Bft) 97,87 %
17.02.2016 21:50 1,6 C 1,7 C 0,0 C 86 % 0 lf 1013,7 hPa 0,0 l/m 0 min 0 min 0 W/m 2,1 km/h (1 Bft) 93,62 %
17.02.2016 21:52 1,6 C 1,7 C 0,0 C 86 % 0 lf 1013,7 hPa 0,0 l/m 0 min 0 min 0 W/m 2,1 km/h (1 Bft) 95,74 %
17.02.2016 21:54 1,6 C 1,7 C 0,0 C 86 % 0 lf 1013,7 hPa 0,0 l/m 0 min 0 min 0 W/m 0,0 km/h (0 Bft) 97,87 %
17.02.2016 21:56 1,6 C 1,7 C 0,0 C 86 % 0 lf 1013,8 hPa 0,0 l/m 0 min 0 min 0 W/m 0,0 km/h (0 Bft) 97,83 %
17.02.2016 21:58 1,6 C 1,7 C 0,0 C 86 % 0 lf 1013,7 hPa 0,0 l/m 0 min 0 min 0 W/m 0,0 km/h (0 Bft) 95,74 %
17.02.2016 22:00 1,6 C 1,7 C 0,0 C 86 % 0 lf 1013,6 hPa 0,0 l/m 0 min 0 min 0 W/m 0,0 km/h (0 Bft) 95,74 %
17.02.2016 22:02 1,6 C 1,7 C 0,0 C 86 % 0 lf 1013,5 hPa 0,0 l/m 0 min 0 min 0 W/m 0,0 km/h (0 Bft) 95,74 %
17.02.2016 22:05 1,5 C 1,7 C 0,0 C 86 % 0 lf 1013,5 hPa 0,0 l/m 0 min 0 min 0 W/m 0,0 km/h (0 Bft) 97,14 %
17.02.2016 22:06 1,5 C 1,7 C 0,0 C 86 % 0 lf 1013,6 hPa 0,0 l/m 0 min 0 min 0 W/m 0,0 km/h (0 Bft) 100,00 %
17.02.2016 22:08 1,6 C 1,7 C 0,0 C 86 % 0 lf 1013,6 hPa 0,0 l/m 0 min 0 min 0 W/m 0,0 km/h (0 Bft) 93,48 %
17.02.2016 22:10 1,5 C 1,7 C 0,0 C 86 % 0 lf 1013,7 hPa 0,0 l/m 0 min 0 min 0 W/m 0,0 km/h (0 Bft) 97,87 %
17.02.2016 22:12 1,5 C 1,7 C 0,0 C 86 % 0 lf 1013,7 hPa 0,0 l/m 0 min 0 min 0 W/m 0,0 km/h (0 Bft) 97,87 %
17.02.2016 22:14 1,5 C 1,7 C 0,0 C 86 % 0 lf 1013,8 hPa 0,0 l/m 0 min 0 min 0 W/m 0,0 km/h (0 Bft) 97,87 %
17.02.2016 22:16 1,5 C 1,7 C 0,0 C 86 % 0 lf 1013,7 hPa 0,0 l/m 0 min 0 min 0 W/m 0,0 km/h (0 Bft) 97,87 %
17.02.2016 22:18 1,5 C 1,7 C 0,0 C 86 % 0 lf 1013,7 hPa 0,0 l/m 0 min 0 min 0 W/m 0,0 km/h (0 Bft) 97,83 %
17.02.2016 22:20 1,5 C 1,7 C 0,0 C 86 % 0 lf 1013,7 hPa 0,0 l/m 0 min 0 min 0 W/m 0,0 km/h (0 Bft) 97,87 %
17.02.2016 22:22 1,5 C 1,7 C 0,0 C 86 % 0 lf 1013,6 hPa 0,0 l/m 0 min 0 min 0 W/m 0,0 km/h (0 Bft) 97,87 %
17.02.2016 22:24 1,5 C 1,7 C 0,0 C 86 % 0 lf 1013,7 hPa 0,0 l/m 0 min 0 min 0 W/m 0,0 km/h (0 Bft) 100,00 %
17.02.2016 22:26 1,5 C 1,7 C 0,0 C 86 % 0 lf 1013,6 hPa 0,0 l/m 0 min 0 min 0 W/m 0,0 km/h (0 Bft) 95,74 %
17.02.2016 22:28 1,5 C 1,1 C 0,0 C 86 % 0 lf 1013,7 hPa 0,0 l/m 0 min 0 min 0 W/m 0,0 km/h (0 Bft) 93,62 %
17.02.2016 22:30 1,5 C 1,1 C 0,0 C 86 % 0 lf 1013,6 hPa 0,0 l/m 0 min 0 min 0 W/m 0,0 km/h (0 Bft) 95,65 %
17.02.2016 22:32 1,5 C 1,7 C 0,0 C 86 % 0 lf 1013,7 hPa 0,0 l/m 0 min 0 min 0 W/m 0,0 km/h (0 Bft) 97,87 %
17.02.2016 22:34 1,5 C 1,7 C 0,0 C 86 % 0 lf 1013,7 hPa 0,0 l/m 0 min 0 min 0 W/m 0,0 km/h (0 Bft) 95,74 %
17.02.2016 22:36 1,5 C 1,7 C 0,0 C 86 % 0 lf 1013,6 hPa 0,0 l/m 0 min 0 min 0 W/m 0,0 km/h (0 Bft) 95,74 %
17.02.2016 22:38 1,4 C 1,7 C 0,0 C 86 % 0 lf 1013,6 hPa 0,0 l/m 0 min 0 min 0 W/m 0,0 km/h (0 Bft) 95,74 %
17.02.2016 22:40 1,5 C 1,1 C 0,0 C 86 % 0 lf 1013,6 hPa 0,0 l/m 0 min 0 min 0 W/m 0,0 km/h (0 Bft) 97,87 %
17.02.2016 22:42 1,4 C 1,7 C 0,0 C 86 % 0 lf 1013,6 hPa 0,0 l/m 0 min 0 min 0 W/m 0,0 km/h (0 Bft) 95,65 %
17.02.2016 22:44 1,4 C 1,7 C 0,0 C 86 % 0 lf 1013,6 hPa 0,0 l/m 0 min 0 min 0 W/m 0,0 km/h (0 Bft) 93,62 %
17.02.2016 22:46 1,4 C 1,7 C 0,0 C 86 % 0 lf 1013,5 hPa 0,0 l/m 0 min 0 min 0 W/m 0,0 km/h (0 Bft) 97,87 %
17.02.2016 22:48 1,4 C 1,7 C 0,0 C 86 % 0 lf 1013,5 hPa 0,0 l/m 0 min 0 min 0 W/m 0,0 km/h (0 Bft) 95,74 %
17.02.2016 22:50 1,4 C 1,7 C 0,0 C 86 % 0 lf 1013,5 hPa 0,0 l/m 0 min 0 min 0 W/m 0,0 km/h (0 Bft) 93,62 %
17.02.2016 22:52 1,4 C 1,7 C 0,0 C 87 % 0 lf 1013,5 hPa 0,0 l/m 0 min 0 min 0 W/m 0,0 km/h (0 Bft) 97,87 %
17.02.2016 22:54 1,4 C 1,7 C 0,0 C 87 % 0 lf 1013,5 hPa 0,0 l/m 0 min 0 min 0 W/m 0,0 km/h (0 Bft) 100,00 %
17.02.2016 22:56 1,4 C 1,7 C 0,0 C 87 % 0 lf 1013,5 hPa 0,0 l/m 0 min 0 min 0 W/m 0,0 km/h (0 Bft) 97,87 %
17.02.2016 22:58 1,4 C 1,7 C 0,0 C 87 % 0 lf 1013,4 hPa 0,0 l/m 0 min 0 min 0 W/m 0,0 km/h (0 Bft) 100,00 %
17.02.2016 23:00 1,4 C 1,7 C 0,0 C 87 % 0 lf 1013,4 hPa 0,0 l/m 0 min 0 min 0 W/m 0,0 km/h (0 Bft) 97,87 %
17.02.2016 23:02 1,4 C 1,7 C 0,0 C 87 % 0 lf 1013,4 hPa 0,0 l/m 0 min 0 min 0 W/m 0,0 km/h (0 Bft) 100,00 %
17.02.2016 23:04 1,4 C 1,7 C 0,0 C 87 % 0 lf 1013,4 hPa 0,0 l/m 0 min 0 min 0 W/m 0,0 km/h (0 Bft) 100,00 %
17.02.2016 23:06 1,4 C 1,7 C 0,0 C 87 % 0 lf 1013,4 hPa 0,0 l/m 0 min 0 min 0 W/m 0,0 km/h (0 Bft) 97,83 %
17.02.2016 23:08 1,4 C 1,7 C 0,0 C 87 % 0 lf 1013,4 hPa 0,0 l/m 0 min 0 min 0 W/m 0,0 km/h (0 Bft) 95,74 %
17.02.2016 23:10 1,4 C 1,7 C 0,0 C 87 % 0 lf 1013,3 hPa 0,0 l/m 0 min 0 min 0 W/m 0,0 km/h (0 Bft) 97,87 %
17.02.2016 23:12 1,4 C 1,7 C 0,0 C 87 % 0 lf 1013,4 hPa 0,0 l/m 0 min 0 min 0 W/m 0,0 km/h (0 Bft) 100,00 %
17.02.2016 23:14 1,4 C 1,7 C 0,0 C 87 % 0 lf 1013,4 hPa 0,0 l/m 0 min 0 min 0 W/m 0,0 km/h (0 Bft) 97,87 %
17.02.2016 23:16 1,4 C 1,7 C 0,0 C 87 % 0 lf 1013,4 hPa 0,0 l/m 0 min 0 min 0 W/m 0,0 km/h (0 Bft) 100,00 %
17.02.2016 23:18 1,4 C 1,7 C 0,0 C 87 % 0 lf 1013,3 hPa 0,0 l/m 0 min 0 min 0 W/m 0,0 km/h (0 Bft) 100,00 %
17.02.2016 23:20 1,4 C 1,7 C 0,0 C 87 % 0 lf 1013,4 hPa 0,0 l/m 0 min 0 min 0 W/m 0,0 km/h (0 Bft) 95,74 %
17.02.2016 23:22 1,4 C 1,7 C 0,0 C 87 % 0 lf 1013,4 hPa 0,0 l/m 0 min 0 min 0 W/m 0,0 km/h (0 Bft) 100,00 %
17.02.2016 23:24 1,4 C 1,7 C 0,0 C 87 % 0 lf 1013,3 hPa 0,0 l/m 0 min 0 min 0 W/m 0,0 km/h (0 Bft) 100,00 %
17.02.2016 23:26 1,4 C 1,7 C 0,0 C 87 % 0 lf 1013,3 hPa 0,0 l/m 0 min 0 min 0 W/m 0,0 km/h (0 Bft) 97,87 %
17.02.2016 23:28 1,4 C 1,7 C 0,0 C 87 % 0 lf 1013,3 hPa 0,0 l/m 0 min 0 min 0 W/m 4,2 km/h (1 Bft) 100,00 %
17.02.2016 23:30 1,4 C 2,2 C 0,0 C 87 % 0 lf 1013,3 hPa 0,0 l/m 0 min 0 min 0 W/m 6,3 km/h (2 Bft) 97,87 %
17.02.2016 23:32 1,4 C 2,2 C 0,6 C 88 % 0 lf 1013,3 hPa 0,0 l/m 0 min 0 min 0 W/m 8,4 km/h (2 Bft) 97,87 %
17.02.2016 23:34 1,4 C 2,2 C 0,6 C 88 % 0 lf 1013,3 hPa 0,0 l/m 0 min 0 min 0 W/m 6,3 km/h (2 Bft) 100,00 %
17.02.2016 23:36 1,4 C 2,2 C 0,6 C 88 % 0 lf 1013,3 hPa 0,0 l/m 0 min 0 min 0 W/m 8,4 km/h (2 Bft) 95,74 %
17.02.2016 23:38 1,5 C 2,2 C 0,6 C 88 % 0 lf 1013,3 hPa 0,0 l/m 0 min 0 min 0 W/m 6,3 km/h (2 Bft) 97,87 %
17.02.2016 23:40 1,5 C 2,2 C 0,6 C 88 % 0 lf 1013,2 hPa 0,0 l/m 0 min 0 min 0 W/m 6,3 km/h (2 Bft) 95,65 %
17.02.2016 23:42 1,5 C 2,2 C 0,6 C 88 % 0 lf 1013,3 hPa 0,0 l/m 0 min 0 min 0 W/m 6,3 km/h (2 Bft) 97,87 %
17.02.2016 23:44 1,5 C 2,2 C 0,6 C 88 % 0 lf 1013,2 hPa 0,0 l/m 0 min 0 min 0 W/m 6,3 km/h (2 Bft) 97,87 %
17.02.2016 23:46 1,5 C 2,2 C 0,6 C 88 % 0 lf 1013,2 hPa 0,0 l/m 0 min 0 min 0 W/m 6,3 km/h (2 Bft) 95,74 %
17.02.2016 23:48 1,6 C 2,2 C 0,6 C 88 % 0 lf 1013,2 hPa 0,0 l/m 0 min 0 min 0 W/m 6,3 km/h (2 Bft) 95,74 %
17.02.2016 23:50 1,6 C 2,2 C 0,6 C 88 % 0 lf 1013,2 hPa 0,0 l/m 0 min 0 min 0 W/m 6,3 km/h (2 Bft) 97,87 %
17.02.2016 23:52 1,6 C 2,2 C 0,6 C 88 % 0 lf 1013,2 hPa 0,0 l/m 0 min 0 min 0 W/m 4,2 km/h (1 Bft) 97,83 %
17.02.2016 23:54 1,6 C 2,2 C 0,6 C 88 % 0 lf 1013,2 hPa 0,0 l/m 0 min 0 min 0 W/m 4,2 km/h (1 Bft) 97,87 %
17.02.2016 23:56 1,6 C 2,2 C 0,6 C 88 % 0 lf 1013,2 hPa 0,0 l/m 0 min 0 min 0 W/m 6,3 km/h (2 Bft) 97,87 %
17.02.2016 23:58 1,7 C 2,2 C 0,6 C 88 % 0 lf 1013,2 hPa 0,0 l/m 0 min 0 min 0 W/m 6,3 km/h (2 Bft) 93,62 %
_ Min-Zeit 08:36 08:02 06:58 14:52 00:00 23:40 - - - - 01:10 04:14
Minimum _ -4,3 C -5,0 C -5,6 C 68 % 0 lf 1013,2 hPa - - - - 0,0 km/h (0 Bft) 0,00 %
_ Max-Zeit 15:08 14:48 11:56 09:36 01:38 00:02 10:40 08:06 00:00 12:40 10:40 01:06
Maximum _ 5,9 C 14,4 C 5,0 C 94 % 1 lf 1031,9 hPa 0,2 l/m 2 min 0 min 461 W/m 25,1 km/h
SO (4 Bft)
100,00 %
Durchschnitt _ 0,5 C 2,2 C -1,2 C 83 % 0 lf 1021,2 hPa #0,2 l/m #8:46 h #0 min. 255 W/m 7,4 km/h (2 Bft) 95,72 %
© 2016 W. Hausmann